AFR24E LFPG-KMCO

Flight info

Callsign AFR24E
Flight time 9h 31m
Altitude 35000
Route LGL6H/08L LGL UT176 TERPO/N0482F370 UN461 AKEMO DCT RIVAK/M085F370 UN460 SIVIR DCT PASAS DCT 42N020W/M085F380 3930N03000W 3730N04000W 35N050W/M085F400 DCT NUMBR DCT ANTIG DCT FLUPS DCT TROUT/N0484F400 AR5 CARPX DCT OMN BITHO7
Aircraft A359/H-SDE2E3GHIJ3J4J5LM1ORWXY/LB1D1

Departure

Time 2026-04-25 22:17
Airport Charles de Gaulle International Airport (LFPG)

Arrival

Time 2026-04-26 07:49
Airport Orlando International Airport (KMCO)
Time Latitude Longitude Altitude Speed Heading
2026-04-25 21:46 49.00136 2.58018 355 ft 0 kts 355°
2026-04-25 22:03 49.00133 2.58018 360 ft 1 kts 355°
2026-04-25 22:03 49.00116 2.58020 360 ft 3 kts
2026-04-25 22:03 49.00097 2.58018 362 ft 3 kts 18°
2026-04-25 22:03 49.00083 2.58009 362 ft 3 kts 48°
2026-04-25 22:04 49.00077 2.58000 367 ft 2 kts 83°
2026-04-25 22:04 49.00077 2.57995 367 ft 0 kts 85°
2026-04-25 22:06 49.00079 2.58034 368 ft 12 kts 86°
2026-04-25 22:06 49.00085 2.58151 365 ft 12 kts 83°
2026-04-25 22:07 49.00092 2.58222 366 ft 6 kts 81°
2026-04-25 22:07 49.00094 2.58235 362 ft 2 kts 82°
2026-04-25 22:07 49.00094 2.58236 362 ft 0 kts 82°
2026-04-25 22:10 49.00095 2.58260 366 ft 6 kts 85°
2026-04-25 22:10 49.00077 2.58319 365 ft 5 kts 159°
2026-04-25 22:11 49.00025 2.58319 364 ft 6 kts 203°
2026-04-25 22:11 49.00010 2.58260 365 ft 9 kts 258°
2026-04-25 22:11 49.00002 2.58137 366 ft 14 kts 265°
2026-04-25 22:11 48.99993 2.57955 365 ft 20 kts 266°
2026-04-25 22:12 48.99988 2.57842 367 ft 11 kts 266°
2026-04-25 22:12 48.99980 2.57690 363 ft 18 kts 265°
2026-04-25 22:12 48.99967 2.57472 360 ft 23 kts 264°
2026-04-25 22:12 48.99959 2.57312 368 ft 9 kts 265°
2026-04-25 22:13 48.99959 2.57308 368 ft 0 kts 265°
2026-04-25 22:13 48.99959 2.57306 367 ft 1 kts 265°
2026-04-25 22:14 48.99954 2.57225 362 ft 14 kts 265°
2026-04-25 22:14 48.99943 2.57011 366 ft 26 kts 265°
2026-04-25 22:14 48.99925 2.56684 365 ft 36 kts 265°
2026-04-25 22:14 48.99903 2.56262 366 ft 44 kts 265°
2026-04-25 22:15 48.99866 2.56033 367 ft 12 kts 218°
2026-04-25 22:15 48.99751 2.56028 365 ft 21 kts 175°
2026-04-25 22:15 48.99735 2.56030 364 ft 0 kts 174°
2026-04-25 22:16 48.99715 2.56033 361 ft 9 kts 174°
2026-04-25 22:16 48.99634 2.56059 366 ft 8 kts 146°
2026-04-25 22:16 48.99618 2.56185 367 ft 17 kts 84°
2026-04-25 22:17 48.99651 2.56593 364 ft 75 kts 82°
2026-04-25 22:17 48.99705 2.57799 365 ft 151 kts 85°
2026-04-25 22:17 48.99801 2.59676 683 ft 190 kts 83°
2026-04-25 22:17 48.99924 2.61727 1569 ft 202 kts 83°
2026-04-25 22:18 49.00067 2.63885 2317 ft 205 kts 83°
2026-04-25 22:18 49.00219 2.66072 2901 ft 211 kts 83°
2026-04-25 22:18 49.00382 2.68318 3480 ft 216 kts 82°
2026-04-25 22:18 49.00538 2.70632 3989 ft 224 kts 86°
2026-04-25 22:19 49.00618 2.73056 4431 ft 235 kts 88°
2026-04-25 22:19 49.00611 2.75617 4854 ft 248 kts 90°
2026-04-25 22:19 49.00461 2.78299 5306 ft 260 kts 97°
2026-04-25 22:19 49.00190 2.81089 5796 ft 271 kts 98°
2026-04-25 22:20 48.99933 2.83936 6539 ft 272 kts 96°
2026-04-25 22:20 48.99681 2.86800 7237 ft 275 kts 98°
2026-04-25 22:20 48.99223 2.89646 7941 ft 278 kts 107°
2026-04-25 22:20 48.98463 2.92377 8611 ft 284 kts 122°
2026-04-25 22:21 48.97102 2.94551 9273 ft 289 kts 149°
2026-04-25 22:21 48.95186 2.95416 9897 ft 291 kts 179°
2026-04-25 22:21 48.93230 2.94733 10182 ft 292 kts 210°
2026-04-25 22:21 48.91764 2.92668 10204 ft 289 kts 240°
2026-04-25 22:22 48.91121 2.89800 10315 ft 289 kts 261°
2026-04-25 22:22 48.90420 2.86879 10465 ft 304 kts 237°
2026-04-25 22:22 48.89223 2.84153 10712 ft 317 kts 237°
2026-04-25 22:22 48.88034 2.81247 10975 ft 330 kts 240°
2026-04-25 22:23 48.86904 2.78134 11234 ft 343 kts 243°
2026-04-25 22:23 48.85852 2.74814 11491 ft 354 kts 247°
2026-04-25 22:23 48.84980 2.71608 11713 ft 364 kts 251°
2026-04-25 22:23 48.84277 2.67860 12007 ft 373 kts 257°
2026-04-25 22:24 48.83678 2.64007 12422 ft 377 kts 258°
2026-04-25 22:24 48.83097 2.60100 12894 ft 380 kts 258°
2026-04-25 22:24 48.82530 2.56220 13368 ft 383 kts 258°
2026-04-25 22:24 48.81956 2.52258 13863 ft 386 kts 258°
2026-04-25 22:25 48.81381 2.48273 14324 ft 388 kts 258°
2026-04-25 22:25 48.80802 2.44261 14766 ft 390 kts 258°
2026-04-25 22:25 48.80281 2.40217 15213 ft 392 kts 263°
2026-04-25 22:25 48.80099 2.36080 15678 ft 393 kts 270°
2026-04-25 22:26 48.80099 2.31925 16126 ft 396 kts 271°
2026-04-25 22:26 48.80116 2.27740 16564 ft 398 kts 271°
2026-04-25 22:26 48.80128 2.23533 17007 ft 400 kts 271°
2026-04-25 22:26 48.80136 2.19302 17441 ft 402 kts 270°
2026-04-25 22:27 48.80140 2.15043 17855 ft 405 kts 270°
2026-04-25 22:27 48.80142 2.10759 18289 ft 407 kts 270°
2026-04-25 22:27 48.80142 2.06450 18686 ft 410 kts 270°
2026-04-25 22:27 48.80140 2.02116 19036 ft 412 kts 270°
2026-04-25 22:28 48.80136 1.97760 19395 ft 415 kts 270°
2026-04-25 22:28 48.80130 1.93377 19764 ft 417 kts 270°
2026-04-25 22:28 48.80122 1.88969 20136 ft 419 kts 270°
2026-04-25 22:28 48.80113 1.84543 20522 ft 421 kts 270°
2026-04-25 22:29 48.80102 1.80080 20902 ft 424 kts 270°
2026-04-25 22:29 48.80089 1.75599 21295 ft 426 kts 270°
2026-04-25 22:29 48.80075 1.71094 21702 ft 428 kts 270°
2026-04-25 22:30 48.80040 1.62014 22210 ft 431 kts 270°
2026-04-25 22:30 48.80020 1.57465 22219 ft 432 kts 270°
2026-04-25 22:30 48.79998 1.52897 22218 ft 433 kts 270°
2026-04-25 22:30 48.79982 1.49870 22218 ft 433 kts 270°
2026-04-25 22:31 48.79948 1.43763 22216 ft 433 kts 270°
2026-04-25 22:31 48.79921 1.39192 22217 ft 433 kts 270°
2026-04-25 22:31 48.79763 1.34619 22269 ft 436 kts 264°
2026-04-25 22:31 48.79082 1.30124 22669 ft 440 kts 252°
2026-04-25 22:32 48.77745 1.25936 23104 ft 445 kts 238°
2026-04-25 22:32 48.75728 1.22364 23537 ft 450 kts 224°
2026-04-25 22:32 48.73321 1.19301 23913 ft 454 kts 219°
2026-04-25 22:32 48.70752 1.16480 24261 ft 457 kts 216°
2026-04-25 22:33 48.68110 1.13771 24551 ft 462 kts 215°
2026-04-25 22:33 48.65413 1.11056 24709 ft 470 kts 215°
2026-04-25 22:33 48.62676 1.08284 24908 ft 476 kts 215°
2026-04-25 22:33 48.59934 1.05466 25225 ft 479 kts 216°
2026-04-25 22:34 48.57192 1.02598 25562 ft 481 kts 216°
2026-04-25 22:34 48.54440 0.99691 25913 ft 483 kts 216°
2026-04-25 22:34 48.51684 0.96772 26277 ft 485 kts 216°
2026-04-25 22:34 48.48908 0.93851 26651 ft 487 kts 216°
2026-04-25 22:35 48.46150 0.90962 27361 ft 480 kts 216°
2026-04-25 22:35 48.43451 0.88022 27891 ft 478 kts 221°
2026-04-25 22:35 48.41225 0.84352 28276 ft 475 kts 237°
2026-04-25 22:35 48.39739 0.79930 28597 ft 474 kts 253°
2026-04-25 22:36 48.39087 0.75096 28934 ft 473 kts 267°
2026-04-25 22:36 48.38968 0.70151 29170 ft 474 kts 271°
2026-04-25 22:36 48.38975 0.60223 29209 ft 475 kts 271°
2026-04-25 22:37 48.39002 0.50284 29212 ft 475 kts 271°
2026-04-25 22:37 48.39024 0.40336 29201 ft 475 kts 271°
2026-04-25 22:38 48.39047 0.30390 29204 ft 476 kts 271°
2026-04-25 22:38 48.39059 0.25401 29364 ft 477 kts 271°
2026-04-25 22:38 48.39071 0.20422 29861 ft 475 kts 271°
2026-04-25 22:39 48.39085 0.15474 30377 ft 472 kts 271°
2026-04-25 22:39 48.39015 0.10544 30773 ft 471 kts 266°
2026-04-25 22:39 48.38552 0.05675 31136 ft 471 kts 258°
2026-04-25 22:39 48.37607 0.00966 31513 ft 470 kts 249°
2026-04-25 22:40 48.36167 -0.03443 31897 ft 470 kts 240°
2026-04-25 22:40 48.34374 -0.07552 32252 ft 470 kts 236°
2026-04-25 22:40 48.32417 -0.11483 32581 ft 469 kts 233°
2026-04-25 22:40 48.30388 -0.15316 32937 ft 468 kts 232°
2026-04-25 22:41 48.28368 -0.19058 33290 ft 467 kts 232°
2026-04-25 22:41 48.26331 -0.22837 33632 ft 465 kts 233°
2026-04-25 22:41 48.24310 -0.26621 33973 ft 464 kts 233°
2026-04-25 22:41 48.22305 -0.30411 34276 ft 463 kts 233°
2026-04-25 22:42 48.20315 -0.34199 34564 ft 462 kts 233°
2026-04-25 22:42 48.18329 -0.37990 34728 ft 463 kts 233°
2026-04-25 22:42 48.14331 -0.45630 34909 ft 469 kts 233°
2026-04-25 22:43 48.10276 -0.53353 35087 ft 475 kts 233°
2026-04-25 22:43 48.06160 -0.61163 35182 ft 482 kts 233°
2026-04-25 22:44 48.01975 -0.69076 35182 ft 488 kts 233°
2026-04-25 22:44 47.97740 -0.77060 35183 ft 492 kts 233°
2026-04-25 22:45 47.93479 -0.85071 35182 ft 493 kts 233°
2026-04-25 22:45 47.89309 -0.93181 35181 ft 492 kts 238°
2026-04-25 22:46 47.86304 -1.02281 35184 ft 490 kts 250°
2026-04-25 22:46 47.84026 -1.11838 35181 ft 490 kts 252°
2026-04-25 22:47 47.81880 -1.21460 35180 ft 490 kts 252°
2026-04-25 22:47 47.79709 -1.31059 35180 ft 490 kts 251°
2026-04-25 22:48 47.77498 -1.40648 35196 ft 491 kts 251°
2026-04-25 22:48 47.75269 -1.50213 35416 ft 487 kts 251°
2026-04-25 22:49 47.74161 -1.54951 35664 ft 483 kts 251°
2026-04-25 22:49 47.73059 -1.59655 35923 ft 481 kts 251°
2026-04-25 22:49 47.71963 -1.64325 36163 ft 478 kts 251°
2026-04-25 22:49 47.70869 -1.68977 36411 ft 476 kts 251°
2026-04-25 22:50 47.69780 -1.73598 36679 ft 473 kts 251°
2026-04-25 22:50 47.68694 -1.78199 36939 ft 471 kts 250°
2026-04-25 22:50 47.67612 -1.82774 37145 ft 470 kts 250°
2026-04-25 22:50 47.66527 -1.87350 37183 ft 472 kts 250°
2026-04-25 22:51 47.64329 -1.96592 37185 ft 477 kts 250°
2026-04-25 22:51 47.62122 -2.05831 37183 ft 480 kts 250°
2026-04-25 22:52 47.59883 -2.15165 37189 ft 482 kts 250°
2026-04-25 22:52 47.57996 -2.23002 37188 ft 482 kts 250°
2026-04-25 22:53 47.55369 -2.33864 37184 ft 482 kts 250°
2026-04-25 22:53 47.53099 -2.43212 37185 ft 482 kts 249°
2026-04-25 22:54 47.50825 -2.52536 37184 ft 482 kts 249°
2026-04-25 22:54 47.48541 -2.61859 37185 ft 482 kts 249°
2026-04-25 22:55 47.46250 -2.71170 37183 ft 482 kts 249°
2026-04-25 22:55 47.43953 -2.80469 37187 ft 482 kts 249°
2026-04-25 22:56 47.41647 -2.89768 37184 ft 482 kts 248°
2026-04-25 22:56 47.39334 -2.99053 37179 ft 482 kts 248°
2026-04-25 22:57 47.37016 -3.08324 37180 ft 482 kts 248°
2026-04-25 22:57 47.34703 -3.17535 37178 ft 482 kts 248°
2026-04-25 22:58 47.32367 -3.26799 37177 ft 482 kts 248°
2026-04-25 22:58 47.30025 -3.36049 37181 ft 482 kts 248°
2026-04-25 22:59 47.28059 -3.43787 37178 ft 481 kts 247°
2026-04-25 22:59 47.25722 -3.52951 37175 ft 481 kts 247°
2026-04-25 23:00 47.23361 -3.62168 37179 ft 481 kts 247°
2026-04-25 23:00 47.20996 -3.71366 37177 ft 481 kts 247°
2026-04-25 23:01 47.18625 -3.80552 37178 ft 481 kts 246°
2026-04-25 23:01 47.16245 -3.89735 37188 ft 481 kts 246°
2026-04-25 23:02 47.13857 -3.98910 37188 ft 481 kts 246°
2026-04-25 23:02 47.11463 -4.08074 37198 ft 481 kts 246°
2026-04-25 23:03 47.09062 -4.17223 37200 ft 480 kts 246°
2026-04-25 23:03 47.06655 -4.26368 37200 ft 481 kts 246°
2026-04-25 23:04 47.04239 -4.35511 37194 ft 481 kts 246°
2026-04-25 23:04 47.01812 -4.44658 37206 ft 481 kts 246°
2026-04-25 23:05 46.99378 -4.53794 37207 ft 482 kts 246°
2026-04-25 23:05 46.96952 -4.62866 37207 ft 482 kts 246°
2026-04-25 23:06 46.94502 -4.71989 37208 ft 482 kts 246°
2026-04-25 23:06 46.92044 -4.81109 37209 ft 482 kts 245°
2026-04-25 23:07 46.89578 -4.90222 37209 ft 482 kts 245°
2026-04-25 23:07 46.87107 -4.99321 37216 ft 482 kts 245°
2026-04-25 23:08 46.84628 -5.08415 37212 ft 482 kts 245°
2026-04-25 23:08 46.82141 -5.17501 37217 ft 482 kts 245°
2026-04-25 23:09 46.79647 -5.26579 37221 ft 482 kts 245°
2026-04-25 23:09 46.77147 -5.35645 37226 ft 482 kts 245°
2026-04-25 23:10 46.74639 -5.44705 37223 ft 482 kts 245°
2026-04-25 23:10 46.72125 -5.53751 37226 ft 482 kts 245°
2026-04-25 23:11 46.69602 -5.62797 37224 ft 482 kts 245°
2026-04-25 23:11 46.67072 -5.71833 37226 ft 482 kts 245°
2026-04-25 23:12 46.64535 -5.80859 37226 ft 482 kts 245°
2026-04-25 23:12 46.61991 -5.89877 37227 ft 482 kts 245°
2026-04-25 23:13 46.59439 -5.98889 37229 ft 482 kts 245°
2026-04-25 23:13 46.56880 -6.07896 37227 ft 482 kts 245°
2026-04-25 23:14 46.54310 -6.16902 37233 ft 483 kts 246°
2026-04-25 23:14 46.51733 -6.25905 37233 ft 483 kts 246°
2026-04-25 23:15 46.49147 -6.34902 37235 ft 483 kts 246°
2026-04-25 23:15 46.46552 -6.43902 37237 ft 484 kts 246°
2026-04-25 23:16 46.43948 -6.52896 37235 ft 484 kts 246°
2026-04-25 23:16 46.41337 -6.61884 37241 ft 484 kts 246°
2026-04-25 23:17 46.38716 -6.70873 37241 ft 484 kts 246°
2026-04-25 23:17 46.36104 -6.79797 37239 ft 485 kts 246°
2026-04-25 23:18 46.33468 -6.88771 37242 ft 484 kts 246°
2026-04-25 23:18 46.30809 -6.97792 37238 ft 484 kts 246°
2026-04-25 23:19 46.28160 -7.06745 37241 ft 484 kts 246°
2026-04-25 23:19 46.25525 -7.15620 37240 ft 484 kts 246°
2026-04-25 23:20 46.22864 -7.24551 37248 ft 484 kts 246°
2026-04-25 23:20 46.20198 -7.33467 37246 ft 484 kts 246°
2026-04-25 23:21 46.17524 -7.42375 37250 ft 483 kts 246°
2026-04-25 23:21 46.14848 -7.51262 37246 ft 483 kts 246°
2026-04-25 23:22 46.12165 -7.60138 37250 ft 483 kts 246°
2026-04-25 23:23 46.08130 -7.73430 37256 ft 482 kts 246°
2026-04-25 23:23 46.05438 -7.82261 37250 ft 481 kts 246°
2026-04-25 23:24 46.02740 -7.91077 37249 ft 481 kts 246°
2026-04-25 23:24 46.00555 -8.00111 37247 ft 478 kts 257°
2026-04-25 23:25 45.99884 -8.09613 37254 ft 478 kts 267°
2026-04-25 23:25 45.99902 -8.19185 37251 ft 479 kts 270°
2026-04-25 23:26 46.00017 -8.28757 37255 ft 479 kts 269°
2026-04-25 23:26 46.00069 -8.38324 37255 ft 478 kts 269°
2026-04-25 23:27 46.00071 -8.47883 37259 ft 478 kts 268°
2026-04-25 23:27 46.00055 -8.57374 37260 ft 478 kts 268°
2026-04-25 23:28 46.00031 -8.66929 37257 ft 477 kts 268°
2026-04-25 23:28 45.99519 -8.76405 37257 ft 475 kts 257°
2026-04-25 23:29 45.97810 -8.85549 37256 ft 473 kts 252°
2026-04-25 23:29 45.95867 -8.94586 37257 ft 473 kts 252°
2026-04-25 23:30 45.93889 -9.03601 37258 ft 473 kts 252°
2026-04-25 23:30 45.91923 -9.12618 37256 ft 473 kts 252°
2026-04-25 23:31 45.89965 -9.21622 37260 ft 473 kts 252°
2026-04-25 23:31 45.88002 -9.30626 37258 ft 472 kts 252°
2026-04-25 23:32 45.86034 -9.39617 37258 ft 472 kts 252°
2026-04-25 23:32 45.84058 -9.48598 37257 ft 472 kts 252°
2026-04-25 23:33 45.82073 -9.57583 37261 ft 472 kts 252°
2026-04-25 23:33 45.80082 -9.66555 37260 ft 472 kts 252°
2026-04-25 23:34 45.78084 -9.75519 37260 ft 472 kts 251°
2026-04-25 23:34 45.76080 -9.84475 37258 ft 472 kts 251°
2026-04-25 23:35 45.74069 -9.93421 37259 ft 472 kts 251°
2026-04-25 23:35 45.72054 -10.02353 37259 ft 471 kts 251°
2026-04-25 23:36 45.70033 -10.11272 37262 ft 471 kts 251°
2026-04-25 23:36 45.68006 -10.20181 37259 ft 471 kts 251°
2026-04-25 23:37 45.65973 -10.29078 37260 ft 471 kts 251°
2026-04-25 23:37 45.63947 -10.37906 37257 ft 470 kts 251°
2026-04-25 23:38 45.61903 -10.46781 37261 ft 470 kts 251°
2026-04-25 23:38 45.59853 -10.55643 37260 ft 470 kts 251°
2026-04-25 23:39 45.57797 -10.64496 37263 ft 470 kts 251°
2026-04-25 23:39 45.55733 -10.73344 37260 ft 470 kts 251°
2026-04-25 23:40 45.53664 -10.82184 37262 ft 470 kts 251°
2026-04-25 23:40 45.51587 -10.91017 37259 ft 470 kts 251°
2026-04-25 23:41 45.49504 -10.99843 37263 ft 470 kts 251°
2026-04-25 23:41 45.47415 -11.08658 37261 ft 469 kts 251°
2026-04-25 23:42 45.45320 -11.17463 37266 ft 469 kts 250°
2026-04-25 23:42 45.43221 -11.26254 37263 ft 469 kts 250°
2026-04-25 23:43 45.41114 -11.35039 37265 ft 469 kts 250°
2026-04-25 23:43 45.39004 -11.43805 37263 ft 468 kts 250°
2026-04-25 23:44 45.36887 -11.52564 37267 ft 468 kts 250°
2026-04-25 23:44 45.34765 -11.61310 37262 ft 468 kts 250°
2026-04-25 23:45 45.32638 -11.70042 37268 ft 467 kts 250°
2026-04-25 23:45 45.30507 -11.78757 37267 ft 467 kts 250°
2026-04-25 23:46 45.28383 -11.87411 37268 ft 467 kts 250°
2026-04-25 23:46 45.26240 -11.96109 37271 ft 467 kts 250°
2026-04-25 23:47 45.24091 -12.04796 37266 ft 466 kts 250°
2026-04-25 23:47 45.21936 -12.13476 37270 ft 466 kts 249°
2026-04-25 23:48 45.20127 -12.20734 37264 ft 466 kts 249°
2026-04-25 23:48 45.17975 -12.29340 37270 ft 466 kts 249°
2026-04-25 23:49 45.15803 -12.37994 37259 ft 466 kts 249°
2026-04-25 23:49 45.13624 -12.46643 37261 ft 466 kts 249°
2026-04-25 23:50 45.11440 -12.55284 37263 ft 466 kts 249°
2026-04-25 23:50 45.09249 -12.63914 37265 ft 466 kts 249°
2026-04-25 23:51 45.07054 -12.72530 37270 ft 465 kts 249°
2026-04-25 23:51 45.04853 -12.81138 37266 ft 465 kts 249°
2026-04-25 23:52 45.02648 -12.89731 37266 ft 465 kts 249°
2026-04-25 23:52 45.00413 -12.98299 37263 ft 464 kts 246°
2026-04-25 23:53 44.97573 -13.06463 37265 ft 463 kts 242°
2026-04-25 23:53 44.94543 -13.14488 37265 ft 463 kts 241°
2026-04-25 23:54 44.91481 -13.22476 37260 ft 462 kts 241°
2026-04-25 23:54 44.88425 -13.30450 37261 ft 462 kts 241°
2026-04-25 23:55 44.85372 -13.38419 37266 ft 462 kts 241°
2026-04-25 23:55 44.82317 -13.46381 37262 ft 462 kts 241°
2026-04-25 23:56 44.79257 -13.54329 37262 ft 461 kts 241°
2026-04-25 23:56 44.76195 -13.62263 37263 ft 461 kts 241°
2026-04-25 23:57 44.73128 -13.70183 37259 ft 461 kts 241°
2026-04-25 23:57 44.70059 -13.78087 37261 ft 461 kts 241°
2026-04-25 23:58 44.66986 -13.85979 37262 ft 460 kts 241°
2026-04-25 23:58 44.63909 -13.93859 37261 ft 460 kts 240°
2026-04-25 23:59 44.60830 -14.01721 37258 ft 459 kts 240°
2026-04-25 23:59 44.57769 -14.09517 37260 ft 459 kts 240°
2026-04-26 00:00 44.54681 -14.17359 37259 ft 459 kts 240°
2026-04-26 00:00 44.51592 -14.25182 37259 ft 459 kts 240°
2026-04-26 00:01 44.48499 -14.32992 37255 ft 459 kts 240°
2026-04-26 00:01 44.45399 -14.40799 37251 ft 458 kts 240°
2026-04-26 00:02 44.42297 -14.48589 37252 ft 458 kts 240°
2026-04-26 00:02 44.39188 -14.56375 37251 ft 458 kts 240°
2026-04-26 00:03 44.36076 -14.64147 37250 ft 458 kts 240°
2026-04-26 00:03 44.32963 -14.71901 37253 ft 457 kts 240°
2026-04-26 00:04 44.29847 -14.79640 37250 ft 457 kts 240°
2026-04-26 00:04 44.26726 -14.87370 37247 ft 457 kts 240°
2026-04-26 00:05 44.23599 -14.95095 37247 ft 457 kts 240°
2026-04-26 00:05 44.20472 -15.02798 37246 ft 457 kts 240°
2026-04-26 00:06 44.17360 -15.10445 37246 ft 456 kts 240°
2026-04-26 00:06 44.14223 -15.18131 37243 ft 457 kts 240°
2026-04-26 00:07 44.11080 -15.25810 37245 ft 456 kts 240°
2026-04-26 00:07 44.07933 -15.33480 37245 ft 456 kts 240°
2026-04-26 00:08 44.04783 -15.41137 37242 ft 456 kts 240°
2026-04-26 00:08 44.01628 -15.48785 37240 ft 456 kts 240°
2026-04-26 00:09 43.98466 -15.56429 37238 ft 456 kts 240°
2026-04-26 00:09 43.95300 -15.64063 37241 ft 456 kts 240°
2026-04-26 00:10 43.92128 -15.71691 37237 ft 456 kts 240°
2026-04-26 00:10 43.88949 -15.79313 37238 ft 456 kts 240°
2026-04-26 00:11 43.85766 -15.86926 37235 ft 457 kts 240°
2026-04-26 00:11 43.82579 -15.94529 37237 ft 457 kts 240°
2026-04-26 00:12 43.79385 -16.02128 37233 ft 457 kts 240°
2026-04-26 00:12 43.76207 -16.09670 37237 ft 457 kts 240°
2026-04-26 00:13 43.73000 -16.17258 37235 ft 457 kts 240°
2026-04-26 00:13 43.69789 -16.24839 37230 ft 457 kts 240°
2026-04-26 00:14 43.66572 -16.32412 37230 ft 457 kts 240°
2026-04-26 00:14 43.63348 -16.39983 37227 ft 457 kts 240°
2026-04-26 00:15 43.60117 -16.47548 37229 ft 458 kts 240°
2026-04-26 00:15 43.56880 -16.55109 37223 ft 458 kts 240°
2026-04-26 00:16 43.53639 -16.62661 37224 ft 458 kts 240°
2026-04-26 00:16 43.50392 -16.70204 37223 ft 458 kts 240°
2026-04-26 00:17 43.47140 -16.77741 37225 ft 458 kts 240°
2026-04-26 00:17 43.43883 -16.85270 37220 ft 458 kts 240°
2026-04-26 00:18 43.40620 -16.92796 37224 ft 458 kts 240°
2026-04-26 00:18 43.37349 -17.00316 37220 ft 458 kts 240°
2026-04-26 00:19 43.34074 -17.07830 37218 ft 458 kts 240°
2026-04-26 00:19 43.30795 -17.15332 37219 ft 458 kts 240°
2026-04-26 00:20 43.27511 -17.22826 37216 ft 458 kts 240°
2026-04-26 00:20 43.24243 -17.30264 37219 ft 458 kts 240°
2026-04-26 00:21 43.20948 -17.37743 37213 ft 458 kts 240°
2026-04-26 00:21 43.17649 -17.45214 37213 ft 458 kts 240°
2026-04-26 00:22 43.14347 -17.52673 37214 ft 458 kts 239°
2026-04-26 00:22 43.11037 -17.60131 37214 ft 458 kts 239°
2026-04-26 00:23 43.07725 -17.67574 37213 ft 458 kts 239°
2026-04-26 00:23 43.04406 -17.75015 37211 ft 458 kts 239°
2026-04-26 00:24 43.01079 -17.82453 37211 ft 458 kts 239°
2026-04-26 00:24 42.97750 -17.89877 37209 ft 459 kts 239°
2026-04-26 00:25 42.94413 -17.97301 37209 ft 459 kts 239°
2026-04-26 00:25 42.91070 -18.04719 37207 ft 459 kts 239°
2026-04-26 00:26 42.87726 -18.12122 37204 ft 459 kts 239°
2026-04-26 00:26 42.84372 -18.19526 37209 ft 459 kts 239°
2026-04-26 00:27 42.81013 -18.26925 37204 ft 459 kts 239°
2026-04-26 00:27 42.77649 -18.34315 37202 ft 459 kts 239°
2026-04-26 00:28 42.74279 -18.41701 37202 ft 460 kts 239°
2026-04-26 00:28 42.70924 -18.49035 37201 ft 460 kts 239°
2026-04-26 00:29 42.67541 -18.56411 37203 ft 460 kts 239°
2026-04-26 00:29 42.64131 -18.63830 37201 ft 460 kts 239°
2026-04-26 00:30 42.60759 -18.71145 37201 ft 460 kts 239°
2026-04-26 00:30 42.57358 -18.78507 37204 ft 460 kts 239°
2026-04-26 00:31 42.53953 -18.85860 37205 ft 460 kts 239°
2026-04-26 00:31 42.50540 -18.93211 37200 ft 461 kts 239°
2026-04-26 00:32 42.47120 -19.00556 37203 ft 461 kts 239°
2026-04-26 00:32 42.41982 -19.11563 37202 ft 461 kts 238°
2026-04-26 00:33 42.38549 -19.18892 37205 ft 461 kts 238°
2026-04-26 00:33 42.35113 -19.26211 37201 ft 461 kts 238°
2026-04-26 00:34 42.31667 -19.33534 37205 ft 462 kts 238°
2026-04-26 00:34 42.28218 -19.40844 37203 ft 462 kts 238°
2026-04-26 00:35 42.24759 -19.48157 37201 ft 462 kts 238°
2026-04-26 00:35 42.21296 -19.55462 37203 ft 462 kts 238°
2026-04-26 00:36 42.18414 -19.61529 37203 ft 462 kts 238°
2026-04-26 00:36 42.14939 -19.68825 37212 ft 463 kts 238°
2026-04-26 00:37 42.10892 -19.77301 37198 ft 463 kts 238°
2026-04-26 00:37 42.07404 -19.84589 37215 ft 463 kts 238°
2026-04-26 00:38 42.04474 -19.90695 37200 ft 464 kts 238°
2026-04-26 00:38 42.01062 -19.98054 37217 ft 463 kts 243°
2026-04-26 00:39 41.98779 -20.06072 37200 ft 463 kts 253°
2026-04-26 00:39 41.97057 -20.14420 37198 ft 464 kts 255°
2026-04-26 00:40 41.95419 -20.22806 37207 ft 464 kts 255°
2026-04-26 00:40 41.93761 -20.31190 37199 ft 465 kts 255°
2026-04-26 00:41 41.92076 -20.39570 37197 ft 465 kts 254°
2026-04-26 00:41 41.90375 -20.47953 37212 ft 466 kts 254°
2026-04-26 00:42 41.88664 -20.56349 37198 ft 467 kts 254°
2026-04-26 00:42 41.86946 -20.64752 37200 ft 467 kts 254°
2026-04-26 00:43 41.85218 -20.73167 37210 ft 468 kts 254°
2026-04-26 00:43 41.83481 -20.81594 37196 ft 469 kts 254°
2026-04-26 00:44 41.81733 -20.90039 37198 ft 471 kts 254°
2026-04-26 00:44 41.79976 -20.98496 37208 ft 472 kts 254°
2026-04-26 00:45 41.78208 -21.06971 37201 ft 473 kts 254°
2026-04-26 00:45 41.76429 -21.15457 37198 ft 474 kts 254°
2026-04-26 00:46 41.74640 -21.23964 37210 ft 475 kts 254°
2026-04-26 00:46 41.72839 -21.32489 37194 ft 476 kts 254°
2026-04-26 00:47 41.71028 -21.41026 37198 ft 478 kts 254°
2026-04-26 00:47 41.69206 -21.49584 37193 ft 479 kts 254°
2026-04-26 00:48 41.67372 -21.58158 37208 ft 480 kts 254°
2026-04-26 00:48 41.65541 -21.66687 37194 ft 481 kts 254°
2026-04-26 00:49 41.63687 -21.75290 37197 ft 482 kts 254°
2026-04-26 00:49 41.61808 -21.83973 37198 ft 483 kts 254°
2026-04-26 00:50 41.59944 -21.92554 37194 ft 484 kts 254°
2026-04-26 00:50 41.58058 -22.01196 37197 ft 485 kts 254°
2026-04-26 00:51 41.56165 -22.09840 37204 ft 486 kts 254°
2026-04-26 00:51 41.54261 -22.18497 37192 ft 486 kts 254°
2026-04-26 00:52 41.52350 -22.27154 37206 ft 486 kts 254°
2026-04-26 00:52 41.50430 -22.35815 37196 ft 487 kts 254°
2026-04-26 00:53 41.48503 -22.44472 37194 ft 487 kts 254°
2026-04-26 00:53 41.46569 -22.53129 37190 ft 487 kts 254°
2026-04-26 00:54 41.44628 -22.61778 37191 ft 487 kts 254°
2026-04-26 00:54 41.42678 -22.70436 37199 ft 488 kts 254°
2026-04-26 00:55 41.40723 -22.79085 37201 ft 488 kts 254°
2026-04-26 00:55 41.38758 -22.87740 37187 ft 488 kts 254°
2026-04-26 00:56 41.36787 -22.96390 37200 ft 488 kts 254°
2026-04-26 00:56 41.34809 -23.05039 37199 ft 489 kts 254°
2026-04-26 00:57 41.32821 -23.13695 37199 ft 489 kts 254°
2026-04-26 00:57 41.30825 -23.22353 37199 ft 490 kts 254°
2026-04-26 00:58 41.28821 -23.31011 37202 ft 490 kts 254°
2026-04-26 00:58 41.26810 -23.39669 37203 ft 490 kts 254°
2026-04-26 00:59 41.24791 -23.48328 37198 ft 491 kts 254°
2026-04-26 00:59 41.22776 -23.56931 37203 ft 491 kts 254°
2026-04-26 01:00 41.20742 -23.65590 37204 ft 491 kts 254°
2026-04-26 01:00 41.18698 -23.74252 37208 ft 492 kts 254°
2026-04-26 01:01 41.16648 -23.82913 37212 ft 492 kts 254°
2026-04-26 01:01 41.14590 -23.91571 37212 ft 492 kts 254°
2026-04-26 01:02 41.12525 -24.00224 37209 ft 492 kts 254°
2026-04-26 01:02 41.10453 -24.08876 37207 ft 492 kts 254°
2026-04-26 01:03 41.08374 -24.17524 37212 ft 492 kts 254°
2026-04-26 01:03 41.06290 -24.26163 37217 ft 492 kts 254°
2026-04-26 01:04 41.04199 -24.34797 37211 ft 492 kts 254°
2026-04-26 01:04 41.02101 -24.43425 37211 ft 492 kts 253°
2026-04-26 01:05 40.99997 -24.52049 37209 ft 492 kts 253°
2026-04-26 01:05 40.97885 -24.60673 37208 ft 493 kts 253°
2026-04-26 01:06 40.95779 -24.69242 37210 ft 493 kts 253°
2026-04-26 01:06 40.93653 -24.77860 37211 ft 493 kts 253°
2026-04-26 01:07 40.91520 -24.86477 37215 ft 493 kts 253°
2026-04-26 01:07 40.89378 -24.95093 37216 ft 493 kts 253°
2026-04-26 01:08 40.87230 -25.03705 37215 ft 493 kts 253°
2026-04-26 01:08 40.85078 -25.12306 37216 ft 493 kts 253°
2026-04-26 01:09 40.82920 -25.20895 37219 ft 493 kts 253°
2026-04-26 01:09 40.80757 -25.29472 37219 ft 492 kts 253°
2026-04-26 01:10 40.78591 -25.38032 37218 ft 491 kts 253°
2026-04-26 01:10 40.76422 -25.46577 37223 ft 491 kts 253°
2026-04-26 01:11 40.74248 -25.55108 37221 ft 490 kts 253°
2026-04-26 01:11 40.72070 -25.63625 37221 ft 490 kts 253°
2026-04-26 01:12 40.69889 -25.72124 37223 ft 489 kts 253°
2026-04-26 01:12 40.67703 -25.80613 37222 ft 489 kts 253°
2026-04-26 01:13 40.65515 -25.89082 37222 ft 488 kts 253°
2026-04-26 01:13 40.63322 -25.97537 37225 ft 488 kts 253°
2026-04-26 01:14 40.61124 -26.05982 37226 ft 487 kts 253°
2026-04-26 01:14 40.58924 -26.14409 37224 ft 487 kts 253°
2026-04-26 01:15 40.56719 -26.22826 37226 ft 487 kts 253°
2026-04-26 01:15 40.54507 -26.31238 37223 ft 486 kts 253°
2026-04-26 01:16 40.52292 -26.39633 37225 ft 486 kts 253°
2026-04-26 01:16 40.50086 -26.47969 37224 ft 486 kts 253°
2026-04-26 01:17 40.47860 -26.56351 37225 ft 486 kts 253°
2026-04-26 01:17 40.45627 -26.64728 37228 ft 486 kts 253°
2026-04-26 01:18 40.43388 -26.73103 37231 ft 486 kts 252°
2026-04-26 01:18 40.41144 -26.81466 37221 ft 486 kts 252°
2026-04-26 01:19 40.38893 -26.89828 37226 ft 486 kts 252°
2026-04-26 01:19 40.36636 -26.98185 37224 ft 486 kts 252°
2026-04-26 01:20 40.34372 -27.06539 37224 ft 486 kts 252°
2026-04-26 01:20 40.32103 -27.14883 37219 ft 486 kts 252°
2026-04-26 01:21 40.29827 -27.23224 37224 ft 486 kts 252°
2026-04-26 01:21 40.27546 -27.31557 37228 ft 486 kts 252°
2026-04-26 01:22 40.25261 -27.39879 37221 ft 486 kts 252°
2026-04-26 01:22 40.22970 -27.48195 37220 ft 485 kts 252°
2026-04-26 01:23 40.20676 -27.56493 37216 ft 485 kts 252°
2026-04-26 01:23 40.18380 -27.64772 37217 ft 484 kts 252°
2026-04-26 01:24 40.16082 -27.73034 37212 ft 483 kts 252°
2026-04-26 01:24 40.13781 -27.81277 37214 ft 482 kts 252°
2026-04-26 01:25 40.11866 -27.88118 37214 ft 482 kts 252°
2026-04-26 01:25 40.09562 -27.96325 37213 ft 481 kts 252°
2026-04-26 01:26 40.07256 -28.04513 37219 ft 480 kts 252°
2026-04-26 01:26 40.04947 -28.12683 37214 ft 479 kts 252°
2026-04-26 01:27 40.02637 -28.20834 37212 ft 479 kts 252°
2026-04-26 01:27 40.00323 -28.28972 37207 ft 478 kts 252°
2026-04-26 01:28 39.98007 -28.37093 37208 ft 478 kts 252°
2026-04-26 01:28 39.95686 -28.45203 37210 ft 477 kts 252°
2026-04-26 01:29 39.93362 -28.53301 37211 ft 477 kts 252°
2026-04-26 01:29 39.91036 -28.61381 37207 ft 476 kts 252°
2026-04-26 01:30 39.88705 -28.69451 37201 ft 476 kts 252°
2026-04-26 01:30 39.86371 -28.77509 37205 ft 475 kts 251°
2026-04-26 01:31 39.84034 -28.85553 37201 ft 475 kts 251°
2026-04-26 01:31 39.81694 -28.93581 37202 ft 474 kts 251°
2026-04-26 01:32 39.79350 -29.01600 37196 ft 474 kts 251°
2026-04-26 01:32 39.77003 -29.09601 37198 ft 473 kts 251°
2026-04-26 01:33 39.74653 -29.17593 37199 ft 473 kts 251°
2026-04-26 01:33 39.72300 -29.25568 37197 ft 473 kts 251°
2026-04-26 01:34 39.69944 -29.33531 37197 ft 472 kts 251°
2026-04-26 01:34 39.67583 -29.41484 37195 ft 472 kts 251°
2026-04-26 01:35 39.65220 -29.49423 37190 ft 471 kts 251°
2026-04-26 01:35 39.62854 -29.57349 37189 ft 471 kts 251°
2026-04-26 01:36 39.60486 -29.65256 37188 ft 470 kts 251°
2026-04-26 01:37 39.56930 -29.77090 37189 ft 469 kts 251°
2026-04-26 01:37 39.54571 -29.84911 37186 ft 469 kts 251°
2026-04-26 01:38 39.52195 -29.92766 37185 ft 468 kts 251°
2026-04-26 01:38 39.50012 -30.00676 37187 ft 465 kts 258°
2026-04-26 01:39 39.48614 -30.08833 37182 ft 464 kts 260°
2026-04-26 01:39 39.47360 -30.17016 37181 ft 463 kts 261°
2026-04-26 01:40 39.46120 -30.25196 37182 ft 463 kts 260°
2026-04-26 01:40 39.44862 -30.33367 37176 ft 463 kts 260°
2026-04-26 01:41 39.43591 -30.41523 37176 ft 463 kts 260°
2026-04-26 01:41 39.42311 -30.49678 37173 ft 462 kts 260°
2026-04-26 01:42 39.41029 -30.57816 37173 ft 462 kts 260°
2026-04-26 01:42 39.39741 -30.65950 37174 ft 462 kts 260°
2026-04-26 01:43 39.38449 -30.74079 37175 ft 461 kts 260°
2026-04-26 01:43 39.37152 -30.82192 37172 ft 461 kts 259°
2026-04-26 01:44 39.35852 -30.90295 37171 ft 460 kts 259°
2026-04-26 01:44 39.34547 -30.98384 37165 ft 460 kts 259°
2026-04-26 01:45 39.33248 -31.06404 37165 ft 459 kts 259°
2026-04-26 01:45 39.31935 -31.14471 37166 ft 459 kts 259°
2026-04-26 01:46 39.30618 -31.22521 37167 ft 458 kts 259°
2026-04-26 01:46 39.29297 -31.30559 37164 ft 457 kts 259°
2026-04-26 01:47 39.27972 -31.38589 37161 ft 457 kts 259°
2026-04-26 01:47 39.26643 -31.46611 37164 ft 457 kts 259°
2026-04-26 01:48 39.25308 -31.54623 37163 ft 457 kts 259°
2026-04-26 01:48 39.23969 -31.62628 37158 ft 456 kts 259°
2026-04-26 01:49 39.22625 -31.70626 37157 ft 456 kts 259°
2026-04-26 01:49 39.21277 -31.78618 37156 ft 456 kts 259°
2026-04-26 01:50 39.19922 -31.86609 37155 ft 456 kts 259°
2026-04-26 01:50 39.18563 -31.94590 37158 ft 456 kts 259°
2026-04-26 01:51 39.17199 -32.02568 37152 ft 456 kts 258°
2026-04-26 01:51 39.15830 -32.10537 37153 ft 455 kts 258°
2026-04-26 01:52 39.14456 -32.18503 37153 ft 455 kts 258°
2026-04-26 01:52 39.13077 -32.26461 37151 ft 455 kts 258°
2026-04-26 01:53 39.11693 -32.34415 37148 ft 455 kts 258°
2026-04-26 01:53 39.10305 -32.42360 37147 ft 455 kts 258°
2026-04-26 01:54 39.08910 -32.50304 37146 ft 455 kts 258°
2026-04-26 01:54 39.07512 -32.58237 37147 ft 455 kts 258°
2026-04-26 01:55 39.06118 -32.66113 37143 ft 454 kts 258°
2026-04-26 01:55 39.04710 -32.74037 37141 ft 454 kts 258°
2026-04-26 01:56 39.03297 -32.81952 37136 ft 454 kts 258°
2026-04-26 01:56 39.01880 -32.89857 37138 ft 454 kts 258°
2026-04-26 01:57 39.00457 -32.97764 37137 ft 454 kts 258°
2026-04-26 01:57 38.99030 -33.05662 37131 ft 453 kts 258°
2026-04-26 01:58 38.97598 -33.13554 37128 ft 453 kts 258°
2026-04-26 01:58 38.96161 -33.21439 37130 ft 453 kts 258°
2026-04-26 01:59 38.94720 -33.29316 37126 ft 453 kts 258°
2026-04-26 01:59 38.93274 -33.37184 37125 ft 452 kts 257°
2026-04-26 02:00 38.91825 -33.45043 37124 ft 452 kts 257°
2026-04-26 02:00 38.90371 -33.52893 37124 ft 452 kts 257°
2026-04-26 02:01 38.88913 -33.60734 37119 ft 451 kts 257°
2026-04-26 02:01 38.87450 -33.68569 37119 ft 451 kts 257°
2026-04-26 02:02 38.85985 -33.76382 37113 ft 450 kts 257°
2026-04-26 02:02 38.84516 -33.84190 37114 ft 450 kts 257°
2026-04-26 02:03 38.83042 -33.91990 37114 ft 450 kts 257°
2026-04-26 02:03 38.81566 -33.99775 37110 ft 449 kts 257°
2026-04-26 02:04 38.80086 -34.07549 37108 ft 449 kts 257°
2026-04-26 02:04 38.78600 -34.15320 37107 ft 449 kts 257°
2026-04-26 02:05 38.77111 -34.23081 37106 ft 448 kts 257°
2026-04-26 02:05 38.75617 -34.30833 37101 ft 448 kts 257°
2026-04-26 02:06 38.74118 -34.38585 37102 ft 448 kts 257°
2026-04-26 02:06 38.72626 -34.46273 37100 ft 448 kts 257°
2026-04-26 02:07 38.71110 -34.54054 37095 ft 447 kts 257°
2026-04-26 02:07 38.69609 -34.61725 37097 ft 447 kts 257°
2026-04-26 02:08 38.68095 -34.69436 37092 ft 447 kts 257°
2026-04-26 02:08 38.66577 -34.77136 37091 ft 446 kts 257°
2026-04-26 02:09 38.65056 -34.84828 37092 ft 446 kts 256°
2026-04-26 02:09 38.63530 -34.92510 37081 ft 445 kts 256°
2026-04-26 02:10 38.62001 -35.00184 37085 ft 445 kts 256°
2026-04-26 02:10 38.60469 -35.07841 37085 ft 444 kts 256°
2026-04-26 02:11 38.58933 -35.15493 37079 ft 444 kts 256°
2026-04-26 02:11 38.57394 -35.23131 37080 ft 443 kts 256°
2026-04-26 02:12 38.56113 -35.29467 37081 ft 443 kts 256°
2026-04-26 02:12 38.54568 -35.37081 37075 ft 442 kts 256°
2026-04-26 02:13 38.53021 -35.44683 37074 ft 442 kts 256°
2026-04-26 02:13 38.51470 -35.52270 37069 ft 441 kts 256°
2026-04-26 02:14 38.49916 -35.59847 37070 ft 441 kts 256°
2026-04-26 02:14 38.48360 -35.67410 37069 ft 440 kts 256°
2026-04-26 02:15 38.46802 -35.74956 37061 ft 440 kts 256°
2026-04-26 02:15 38.45239 -35.82495 37060 ft 439 kts 256°
2026-04-26 02:16 38.43674 -35.90022 37060 ft 439 kts 256°
2026-04-26 02:16 38.42106 -35.97537 37058 ft 438 kts 256°
2026-04-26 02:17 38.40534 -36.05040 37053 ft 438 kts 256°
2026-04-26 02:17 38.38959 -36.12535 37051 ft 437 kts 256°
2026-04-26 02:18 38.37382 -36.20015 37048 ft 437 kts 256°
2026-04-26 02:18 38.35801 -36.27486 37045 ft 436 kts 256°
2026-04-26 02:19 38.34218 -36.34940 37047 ft 436 kts 256°
2026-04-26 02:19 38.32631 -36.42389 37039 ft 435 kts 256°
2026-04-26 02:20 38.31041 -36.49824 37040 ft 435 kts 256°
2026-04-26 02:20 38.29460 -36.57197 37037 ft 434 kts 256°
2026-04-26 02:21 38.27864 -36.64609 37037 ft 434 kts 256°
2026-04-26 02:21 38.26266 -36.72010 37031 ft 433 kts 256°
2026-04-26 02:22 38.24664 -36.79402 37031 ft 433 kts 256°
2026-04-26 02:22 38.23062 -36.86773 37031 ft 432 kts 256°
2026-04-26 02:23 38.21456 -36.94135 37025 ft 432 kts 256°
2026-04-26 02:23 38.19848 -37.01480 37021 ft 431 kts 256°
2026-04-26 02:24 38.18240 -37.08805 37021 ft 430 kts 256°
2026-04-26 02:24 38.16629 -37.16118 37023 ft 429 kts 256°
2026-04-26 02:25 38.15016 -37.23419 37015 ft 429 kts 256°
2026-04-26 02:25 38.13400 -37.30708 37014 ft 428 kts 256°
2026-04-26 02:26 38.11783 -37.37979 37016 ft 428 kts 256°
2026-04-26 02:26 38.10162 -37.45243 37011 ft 427 kts 256°
2026-04-26 02:27 38.08537 -37.52498 37000 ft 427 kts 256°
2026-04-26 02:27 38.06910 -37.59743 37008 ft 427 kts 256°
2026-04-26 02:28 38.05280 -37.66980 37003 ft 426 kts 256°
2026-04-26 02:28 38.03647 -37.74205 36997 ft 426 kts 256°
2026-04-26 02:29 38.02012 -37.81416 37008 ft 425 kts 255°
2026-04-26 02:29 38.00375 -37.88616 36992 ft 424 kts 255°
2026-04-26 02:30 37.98747 -37.95748 36998 ft 424 kts 255°
2026-04-26 02:30 37.97106 -38.02923 36990 ft 424 kts 255°
2026-04-26 02:31 37.95462 -38.10081 36990 ft 423 kts 255°
2026-04-26 02:31 37.93816 -38.17233 36984 ft 423 kts 255°
2026-04-26 02:32 37.92165 -38.24380 36983 ft 422 kts 255°
2026-04-26 02:32 37.90514 -38.31508 36980 ft 422 kts 255°
2026-04-26 02:33 37.88858 -38.38631 36986 ft 421 kts 255°
2026-04-26 02:33 37.87201 -38.45740 36972 ft 421 kts 255°
2026-04-26 02:34 37.85542 -38.52836 36972 ft 421 kts 255°
2026-04-26 02:34 37.83879 -38.59931 36973 ft 420 kts 255°
2026-04-26 02:35 37.82211 -38.67021 36969 ft 420 kts 255°
2026-04-26 02:35 37.80541 -38.74100 36962 ft 420 kts 255°
2026-04-26 02:36 37.78867 -38.81176 36959 ft 420 kts 255°
2026-04-26 02:36 37.77189 -38.88247 36957 ft 420 kts 255°
2026-04-26 02:37 37.75509 -38.95303 36958 ft 419 kts 255°
2026-04-26 02:37 37.73824 -39.02362 36954 ft 419 kts 255°
2026-04-26 02:38 37.72137 -39.09408 36951 ft 419 kts 255°
2026-04-26 02:38 37.70447 -39.16447 36945 ft 419 kts 255°
2026-04-26 02:39 37.68753 -39.23480 36945 ft 419 kts 255°
2026-04-26 02:39 37.67055 -39.30507 36945 ft 418 kts 255°
2026-04-26 02:40 37.65365 -39.37483 36938 ft 418 kts 254°
2026-04-26 02:40 37.63661 -39.44499 36941 ft 418 kts 254°
2026-04-26 02:41 37.61941 -39.51557 36935 ft 418 kts 254°
2026-04-26 02:41 37.60241 -39.58515 36934 ft 418 kts 254°
2026-04-26 02:42 37.58515 -39.65559 36930 ft 418 kts 254°
2026-04-26 02:42 37.56808 -39.72504 36930 ft 417 kts 254°
2026-04-26 02:43 37.54224 -39.82978 36927 ft 417 kts 254°
2026-04-26 02:43 37.52498 -39.89950 36925 ft 417 kts 254°
2026-04-26 02:44 37.50768 -39.96920 36921 ft 417 kts 254°
2026-04-26 02:44 37.49089 -40.03898 36919 ft 416 kts 256°
2026-04-26 02:45 37.47688 -40.10964 36916 ft 416 kts 257°
2026-04-26 02:45 37.46332 -40.18037 36913 ft 415 kts 257°
2026-04-26 02:46 37.44931 -40.25088 36910 ft 415 kts 256°
2026-04-26 02:46 37.43500 -40.32128 36909 ft 415 kts 256°
2026-04-26 02:47 37.42060 -40.39159 36905 ft 415 kts 256°
2026-04-26 02:47 37.40617 -40.46182 36909 ft 415 kts 256°
2026-04-26 02:48 37.39173 -40.53200 36900 ft 414 kts 256°
2026-04-26 02:48 37.37726 -40.60208 36898 ft 414 kts 256°
2026-04-26 02:49 37.36275 -40.67213 36897 ft 414 kts 256°
2026-04-26 02:49 37.34831 -40.74166 36892 ft 414 kts 256°
2026-04-26 02:50 37.33374 -40.81157 36891 ft 413 kts 256°
2026-04-26 02:50 37.31904 -40.88185 36889 ft 413 kts 256°
2026-04-26 02:51 37.30450 -40.95117 36884 ft 413 kts 256°
2026-04-26 02:51 37.28972 -41.02137 36883 ft 413 kts 256°
2026-04-26 02:52 37.27501 -41.09105 36879 ft 413 kts 256°
2026-04-26 02:52 37.26036 -41.16024 36874 ft 413 kts 255°
2026-04-26 02:53 37.24556 -41.22990 36876 ft 413 kts 255°
2026-04-26 02:53 37.23073 -41.29950 36867 ft 413 kts 255°
2026-04-26 02:54 37.21585 -41.36907 36869 ft 413 kts 255°
2026-04-26 02:54 37.20094 -41.43861 36864 ft 413 kts 255°
2026-04-26 02:55 37.18598 -41.50815 36869 ft 413 kts 255°
2026-04-26 02:55 37.17099 -41.57760 36872 ft 413 kts 255°
2026-04-26 02:56 37.15596 -41.64702 36860 ft 412 kts 255°
2026-04-26 02:56 37.14090 -41.71637 36854 ft 412 kts 255°
2026-04-26 02:57 37.12581 -41.78565 36852 ft 412 kts 255°
2026-04-26 02:57 37.11069 -41.85484 36852 ft 412 kts 255°
2026-04-26 02:58 37.09554 -41.92396 36852 ft 412 kts 255°
2026-04-26 02:58 37.08034 -41.99310 36845 ft 412 kts 255°
2026-04-26 02:59 37.06522 -42.06168 36845 ft 411 kts 255°
2026-04-26 02:59 37.04996 -42.13070 36839 ft 411 kts 255°
2026-04-26 03:00 37.03466 -42.19967 36839 ft 411 kts 255°
2026-04-26 03:00 37.02180 -42.25746 36837 ft 411 kts 255°
2026-04-26 03:01 37.00654 -42.32588 36836 ft 411 kts 255°
2026-04-26 03:01 36.99113 -42.39479 36831 ft 411 kts 255°
2026-04-26 03:02 36.97568 -42.46363 36829 ft 411 kts 255°
2026-04-26 03:02 36.96019 -42.53244 36826 ft 411 kts 255°
2026-04-26 03:03 36.94468 -42.60116 36827 ft 411 kts 254°
2026-04-26 03:03 36.92912 -42.66990 36823 ft 411 kts 254°
2026-04-26 03:04 36.91352 -42.73859 36818 ft 411 kts 254°
2026-04-26 03:04 36.89790 -42.80721 36816 ft 411 kts 254°
2026-04-26 03:05 36.88223 -42.87581 36817 ft 411 kts 254°
2026-04-26 03:05 36.86652 -42.94436 36815 ft 410 kts 254°
2026-04-26 03:06 36.85079 -43.01285 36810 ft 410 kts 254°
2026-04-26 03:06 36.83503 -43.08127 36801 ft 410 kts 254°
2026-04-26 03:07 36.81923 -43.14962 36800 ft 410 kts 254°
2026-04-26 03:07 36.80342 -43.21787 36804 ft 409 kts 254°
2026-04-26 03:08 36.78757 -43.28608 36801 ft 409 kts 254°
2026-04-26 03:08 36.77169 -43.35418 36802 ft 409 kts 254°
2026-04-26 03:09 36.75589 -43.42179 36797 ft 408 kts 254°
2026-04-26 03:09 36.73998 -43.48969 36792 ft 408 kts 254°
2026-04-26 03:10 36.72403 -43.55752 36791 ft 407 kts 254°
2026-04-26 03:10 36.70807 -43.62522 36788 ft 407 kts 254°
2026-04-26 03:11 36.69211 -43.69274 36786 ft 406 kts 254°
2026-04-26 03:11 36.67613 -43.76016 36787 ft 406 kts 254°
2026-04-26 03:12 36.66012 -43.82755 36784 ft 405 kts 254°
2026-04-26 03:12 36.64409 -43.89477 36780 ft 405 kts 254°
2026-04-26 03:13 36.62804 -43.96192 36782 ft 404 kts 254°
2026-04-26 03:13 36.61198 -44.02895 36778 ft 404 kts 254°
2026-04-26 03:14 36.59587 -44.09598 36776 ft 404 kts 254°
2026-04-26 03:14 36.57974 -44.16293 36776 ft 404 kts 254°
2026-04-26 03:15 36.56357 -44.22983 36770 ft 404 kts 254°
2026-04-26 03:15 36.54737 -44.29666 36772 ft 403 kts 254°
2026-04-26 03:16 36.53116 -44.36340 36768 ft 403 kts 254°
2026-04-26 03:16 36.51493 -44.42999 36769 ft 402 kts 254°
2026-04-26 03:17 36.49879 -44.49607 36764 ft 402 kts 254°
2026-04-26 03:17 36.48254 -44.56243 36761 ft 401 kts 254°
2026-04-26 03:18 36.46624 -44.62877 36764 ft 401 kts 254°
2026-04-26 03:18 36.44994 -44.69499 36757 ft 401 kts 254°
2026-04-26 03:19 36.43361 -44.76112 36758 ft 401 kts 254°
2026-04-26 03:19 36.41723 -44.82729 36755 ft 401 kts 254°
2026-04-26 03:20 36.40083 -44.89337 36754 ft 401 kts 254°
2026-04-26 03:20 36.38439 -44.95942 36754 ft 400 kts 254°
2026-04-26 03:21 36.36791 -45.02543 36752 ft 400 kts 254°
2026-04-26 03:21 36.35142 -45.09133 36743 ft 400 kts 253°
2026-04-26 03:22 36.33490 -45.15721 36746 ft 400 kts 253°
2026-04-26 03:22 36.31834 -45.22305 36745 ft 400 kts 253°
2026-04-26 03:23 36.30174 -45.28886 36741 ft 400 kts 253°
2026-04-26 03:23 36.28511 -45.35462 36743 ft 400 kts 253°
2026-04-26 03:24 36.26846 -45.42034 36746 ft 400 kts 253°
2026-04-26 03:24 36.25188 -45.48557 36743 ft 400 kts 253°
2026-04-26 03:25 36.23516 -45.55119 36739 ft 399 kts 253°
2026-04-26 03:25 36.21841 -45.61675 36740 ft 399 kts 253°
2026-04-26 03:26 36.20162 -45.68232 36739 ft 399 kts 253°
2026-04-26 03:26 36.18479 -45.74787 36740 ft 399 kts 253°
2026-04-26 03:27 36.16794 -45.81335 36738 ft 399 kts 253°
2026-04-26 03:27 36.15103 -45.87884 36734 ft 399 kts 253°
2026-04-26 03:28 36.13411 -45.94424 36735 ft 399 kts 253°
2026-04-26 03:28 36.11714 -46.00967 36736 ft 399 kts 253°
2026-04-26 03:29 36.10014 -46.07505 36735 ft 399 kts 253°
2026-04-26 03:29 36.08311 -46.14039 36728 ft 399 kts 253°
2026-04-26 03:30 36.06603 -46.20574 36733 ft 399 kts 253°
2026-04-26 03:30 36.04891 -46.27109 36733 ft 400 kts 253°
2026-04-26 03:31 36.03175 -46.33641 36729 ft 400 kts 253°
2026-04-26 03:31 36.01455 -46.40173 36726 ft 400 kts 252°
2026-04-26 03:32 35.99732 -46.46703 36734 ft 400 kts 252°
2026-04-26 03:32 35.98014 -46.53193 36729 ft 400 kts 252°
2026-04-26 03:33 35.96282 -46.59723 36732 ft 400 kts 252°
2026-04-26 03:33 35.94546 -46.66248 36731 ft 400 kts 252°
2026-04-26 03:34 35.92808 -46.72769 36734 ft 400 kts 252°
2026-04-26 03:34 35.91066 -46.79285 36733 ft 400 kts 252°
2026-04-26 03:35 35.89309 -46.85843 36731 ft 400 kts 252°
2026-04-26 03:35 35.87572 -46.92310 36735 ft 400 kts 252°
2026-04-26 03:36 35.85821 -46.98813 36735 ft 400 kts 252°
2026-04-26 03:36 35.84069 -47.05307 36734 ft 399 kts 252°
2026-04-26 03:37 35.82313 -47.11795 36741 ft 399 kts 252°
2026-04-26 03:37 35.80556 -47.18276 36733 ft 399 kts 252°
2026-04-26 03:38 35.78795 -47.24752 36727 ft 399 kts 252°
2026-04-26 03:38 35.77032 -47.31222 36732 ft 398 kts 252°
2026-04-26 03:39 35.75266 -47.37685 36735 ft 398 kts 252°
2026-04-26 03:39 35.73496 -47.44148 36735 ft 398 kts 252°
2026-04-26 03:40 35.71724 -47.50604 36737 ft 398 kts 252°
2026-04-26 03:40 35.69950 -47.57055 36738 ft 398 kts 252°
2026-04-26 03:41 35.68171 -47.63503 36739 ft 398 kts 252°
2026-04-26 03:41 35.66391 -47.69943 36734 ft 398 kts 252°
2026-04-26 03:42 35.64606 -47.76384 36743 ft 398 kts 252°
2026-04-26 03:42 35.62819 -47.82818 36736 ft 398 kts 252°
2026-04-26 03:43 35.61028 -47.89250 36742 ft 398 kts 252°
2026-04-26 03:43 35.59246 -47.95638 36743 ft 398 kts 252°
2026-04-26 03:44 35.57447 -48.02066 36746 ft 398 kts 252°
2026-04-26 03:44 35.55644 -48.08500 36748 ft 398 kts 252°
2026-04-26 03:45 35.53834 -48.14937 36746 ft 399 kts 252°
2026-04-26 03:45 35.52022 -48.21368 36755 ft 399 kts 252°
2026-04-26 03:46 35.50205 -48.27803 36756 ft 399 kts 252°
2026-04-26 03:47 35.47473 -48.37453 36749 ft 399 kts 252°
2026-04-26 03:47 35.45644 -48.43891 36748 ft 400 kts 252°
2026-04-26 03:48 35.43813 -48.50324 36763 ft 400 kts 252°
2026-04-26 03:48 35.41978 -48.56755 36758 ft 400 kts 252°
2026-04-26 03:49 35.40138 -48.63190 36756 ft 400 kts 252°
2026-04-26 03:49 35.38605 -48.68536 36770 ft 400 kts 252°
2026-04-26 03:50 35.36758 -48.74968 36765 ft 400 kts 251°
2026-04-26 03:50 35.34907 -48.81400 36772 ft 400 kts 251°
2026-04-26 03:51 35.33052 -48.87827 36770 ft 400 kts 251°
2026-04-26 03:51 35.31195 -48.94249 36762 ft 400 kts 251°
2026-04-26 03:52 35.29332 -49.00677 36772 ft 401 kts 251°
2026-04-26 03:52 35.27465 -49.07103 36770 ft 401 kts 251°
2026-04-26 03:53 35.25594 -49.13529 36771 ft 401 kts 251°
2026-04-26 03:53 35.23717 -49.19959 36782 ft 401 kts 251°
2026-04-26 03:54 35.21837 -49.26387 36778 ft 402 kts 251°
2026-04-26 03:54 35.19953 -49.32815 36776 ft 402 kts 251°
2026-04-26 03:55 35.18076 -49.39202 36785 ft 402 kts 251°
2026-04-26 03:55 35.16181 -49.45636 36783 ft 402 kts 251°
2026-04-26 03:56 35.14281 -49.52071 36783 ft 403 kts 251°
2026-04-26 03:56 35.12377 -49.58507 36785 ft 403 kts 251°
2026-04-26 03:57 35.10469 -49.64943 36790 ft 403 kts 251°
2026-04-26 03:57 35.08556 -49.71381 36791 ft 403 kts 251°
2026-04-26 03:58 35.06640 -49.77814 36796 ft 403 kts 251°
2026-04-26 03:58 35.04719 -49.84250 36799 ft 404 kts 251°
2026-04-26 03:59 35.02793 -49.90686 36800 ft 404 kts 251°
2026-04-26 03:59 35.00864 -49.97123 36795 ft 404 kts 251°
2026-04-26 04:00 34.99420 -50.03728 36802 ft 403 kts 258°
2026-04-26 04:00 34.98318 -50.10434 36807 ft 403 kts 259°
2026-04-26 04:01 34.97267 -50.17151 36809 ft 403 kts 259°
2026-04-26 04:01 34.96209 -50.23870 36803 ft 403 kts 259°
2026-04-26 04:02 34.95138 -50.30578 36808 ft 403 kts 259°
2026-04-26 04:02 34.94060 -50.37287 36813 ft 403 kts 259°
2026-04-26 04:03 34.92976 -50.43996 36809 ft 403 kts 259°
2026-04-26 04:03 34.91898 -50.50653 36815 ft 403 kts 259°
2026-04-26 04:04 34.90801 -50.57404 36813 ft 404 kts 259°
2026-04-26 04:04 34.89706 -50.64123 36819 ft 404 kts 259°
2026-04-26 04:05 34.88615 -50.70786 36821 ft 404 kts 259°
2026-04-26 04:05 34.87514 -50.77492 36821 ft 404 kts 259°
2026-04-26 04:06 34.86408 -50.84198 36824 ft 404 kts 259°
2026-04-26 04:06 34.85299 -50.90903 36827 ft 404 kts 259°
2026-04-26 04:07 34.84186 -50.97604 36827 ft 404 kts 259°
2026-04-26 04:07 34.83071 -51.04297 36833 ft 403 kts 259°
2026-04-26 04:08 34.81952 -51.10986 36830 ft 403 kts 259°
2026-04-26 04:08 34.80830 -51.17672 36838 ft 403 kts 259°
2026-04-26 04:09 34.79704 -51.24359 36843 ft 403 kts 259°
2026-04-26 04:09 34.78575 -51.31043 36841 ft 404 kts 259°
2026-04-26 04:10 34.77440 -51.37731 36842 ft 404 kts 259°
2026-04-26 04:10 34.76302 -51.44417 36842 ft 404 kts 259°
2026-04-26 04:11 34.75160 -51.51104 36845 ft 404 kts 259°
2026-04-26 04:11 34.74014 -51.57791 36850 ft 404 kts 259°
2026-04-26 04:12 34.72864 -51.64482 36854 ft 404 kts 259°
2026-04-26 04:12 34.71709 -51.71174 36852 ft 405 kts 259°
2026-04-26 04:13 34.70557 -51.77824 36860 ft 405 kts 259°
2026-04-26 04:13 34.69394 -51.84517 36865 ft 405 kts 259°
2026-04-26 04:14 34.68227 -51.91211 36863 ft 405 kts 259°
2026-04-26 04:14 34.67056 -51.97905 36865 ft 405 kts 259°
2026-04-26 04:15 34.65882 -52.04591 36866 ft 405 kts 259°
2026-04-26 04:15 34.64704 -52.11278 36865 ft 405 kts 259°
2026-04-26 04:16 34.63522 -52.17966 36869 ft 405 kts 259°
2026-04-26 04:16 34.62336 -52.24656 36873 ft 405 kts 259°
2026-04-26 04:17 34.61146 -52.31343 36877 ft 405 kts 259°
2026-04-26 04:17 34.59952 -52.38030 36876 ft 405 kts 259°
2026-04-26 04:18 34.58756 -52.44710 36879 ft 405 kts 259°
2026-04-26 04:18 34.57555 -52.51393 36879 ft 405 kts 259°
2026-04-26 04:19 34.56350 -52.58074 36886 ft 406 kts 259°
2026-04-26 04:19 34.55140 -52.64760 36885 ft 406 kts 259°
2026-04-26 04:20 34.53928 -52.71439 36887 ft 406 kts 259°
2026-04-26 04:20 34.52711 -52.78124 36890 ft 406 kts 259°
2026-04-26 04:21 34.51497 -52.84766 36893 ft 406 kts 259°
2026-04-26 04:21 34.50271 -52.91455 36895 ft 407 kts 259°
2026-04-26 04:22 34.49040 -52.98149 36900 ft 407 kts 259°
2026-04-26 04:22 34.47804 -53.04845 36899 ft 407 kts 259°
2026-04-26 04:23 34.46564 -53.11542 36902 ft 407 kts 259°
2026-04-26 04:23 34.45321 -53.18237 36906 ft 407 kts 259°
2026-04-26 04:24 34.44073 -53.24935 36910 ft 408 kts 259°
2026-04-26 04:24 34.42822 -53.31629 36907 ft 408 kts 259°
2026-04-26 04:25 34.41566 -53.38325 36912 ft 408 kts 259°
2026-04-26 04:25 34.40306 -53.45023 36916 ft 408 kts 259°
2026-04-26 04:26 34.39043 -53.51720 36912 ft 408 kts 259°
2026-04-26 04:26 34.37775 -53.58414 36918 ft 408 kts 259°
2026-04-26 04:27 34.36503 -53.65112 36919 ft 408 kts 259°
2026-04-26 04:27 34.35228 -53.71802 36926 ft 408 kts 259°
2026-04-26 04:28 34.33950 -53.78490 36925 ft 408 kts 259°
2026-04-26 04:28 34.32668 -53.85178 36933 ft 408 kts 259°
2026-04-26 04:29 34.31383 -53.91860 36926 ft 408 kts 259°
2026-04-26 04:29 34.30094 -53.98543 36932 ft 408 kts 259°
2026-04-26 04:30 34.28800 -54.05226 36934 ft 408 kts 259°
2026-04-26 04:30 34.27504 -54.11901 36936 ft 408 kts 259°
2026-04-26 04:31 34.26204 -54.18576 36938 ft 408 kts 258°
2026-04-26 04:31 34.24910 -54.25201 36940 ft 408 kts 258°
2026-04-26 04:32 34.23603 -54.31871 36941 ft 408 kts 258°
2026-04-26 04:32 34.22294 -54.38534 36941 ft 408 kts 258°
2026-04-26 04:33 34.20980 -54.45197 36944 ft 407 kts 258°
2026-04-26 04:33 34.19664 -54.51854 36950 ft 407 kts 258°
2026-04-26 04:34 34.18344 -54.58508 36951 ft 407 kts 258°
2026-04-26 04:34 34.17020 -54.65164 36952 ft 408 kts 258°
2026-04-26 04:35 34.15692 -54.71821 36955 ft 408 kts 258°
2026-04-26 04:35 34.14359 -54.78480 36955 ft 408 kts 258°
2026-04-26 04:36 34.13022 -54.85135 36957 ft 408 kts 258°
2026-04-26 04:36 34.11682 -54.91792 36959 ft 408 kts 258°
2026-04-26 04:37 34.10337 -54.98451 36963 ft 408 kts 258°
2026-04-26 04:37 34.08989 -55.05108 36962 ft 409 kts 258°
2026-04-26 04:38 34.07635 -55.11770 36966 ft 409 kts 258°
2026-04-26 04:38 34.06508 -55.17301 36964 ft 409 kts 258°
2026-04-26 04:39 34.05148 -55.23960 36970 ft 409 kts 258°
2026-04-26 04:39 34.03784 -55.30617 36971 ft 409 kts 258°
2026-04-26 04:40 34.02416 -55.37274 36971 ft 409 kts 258°
2026-04-26 04:40 34.01045 -55.43928 36976 ft 409 kts 258°
2026-04-26 04:41 33.99669 -55.50585 36975 ft 409 kts 258°
2026-04-26 04:41 33.98298 -55.57198 36977 ft 410 kts 258°
2026-04-26 04:42 33.96914 -55.63855 36978 ft 410 kts 258°
2026-04-26 04:42 33.95526 -55.70514 36977 ft 410 kts 258°
2026-04-26 04:43 33.94133 -55.77172 36979 ft 410 kts 258°
2026-04-26 04:43 33.92737 -55.83828 36981 ft 410 kts 258°
2026-04-26 04:44 33.91336 -55.90492 36990 ft 411 kts 258°
2026-04-26 04:44 33.89930 -55.97155 36982 ft 411 kts 258°
2026-04-26 04:45 33.88519 -56.03824 36982 ft 411 kts 258°
2026-04-26 04:45 33.87105 -56.10491 36991 ft 411 kts 258°
2026-04-26 04:46 33.85685 -56.17164 36991 ft 411 kts 258°
2026-04-26 04:46 33.84262 -56.23831 36991 ft 412 kts 257°
2026-04-26 04:47 33.82836 -56.30498 36998 ft 412 kts 257°
2026-04-26 04:47 33.81397 -56.37192 36998 ft 416 kts 258°
2026-04-26 04:48 33.79209 -56.47368 36997 ft 420 kts 258°
2026-04-26 04:48 33.77739 -56.54167 36999 ft 420 kts 258°
2026-04-26 04:49 33.76263 -56.60975 37001 ft 421 kts 258°
2026-04-26 04:49 33.74781 -56.67789 37006 ft 422 kts 258°
2026-04-26 04:50 33.73294 -56.74611 37006 ft 422 kts 258°
2026-04-26 04:50 33.71801 -56.81437 37006 ft 423 kts 258°
2026-04-26 04:51 33.70304 -56.88266 37008 ft 423 kts 258°
2026-04-26 04:51 33.68802 -56.95099 37011 ft 424 kts 258°
2026-04-26 04:52 33.67292 -57.01946 37014 ft 424 kts 258°
2026-04-26 04:52 33.65777 -57.08793 37011 ft 425 kts 258°
2026-04-26 04:53 33.64256 -57.15653 37012 ft 425 kts 258°
2026-04-26 04:53 33.62740 -57.22470 37015 ft 426 kts 258°
2026-04-26 04:54 33.61198 -57.29382 37016 ft 426 kts 258°
2026-04-26 04:54 33.59660 -57.36258 37015 ft 427 kts 257°
2026-04-26 04:55 33.58127 -57.43094 37016 ft 428 kts 257°
2026-04-26 04:55 33.56577 -57.49984 37017 ft 428 kts 257°
2026-04-26 04:56 33.55020 -57.56884 37022 ft 429 kts 257°
2026-04-26 04:56 33.53456 -57.63800 37027 ft 430 kts 257°
2026-04-26 04:57 33.51886 -57.70719 37025 ft 431 kts 257°
2026-04-26 04:57 33.50310 -57.77647 37028 ft 431 kts 257°
2026-04-26 04:58 33.48729 -57.84578 37027 ft 432 kts 257°
2026-04-26 04:58 33.47142 -57.91514 37036 ft 432 kts 257°
2026-04-26 04:59 33.45548 -57.98462 37029 ft 433 kts 257°
2026-04-26 04:59 33.43948 -58.05417 37031 ft 434 kts 257°
2026-04-26 05:00 33.42343 -58.12375 37027 ft 434 kts 257°
2026-04-26 05:00 33.40731 -58.19346 37028 ft 435 kts 257°
2026-04-26 05:01 33.39112 -58.26324 37032 ft 435 kts 257°
2026-04-26 05:01 33.37486 -58.33310 37036 ft 436 kts 257°
2026-04-26 05:02 33.35855 -58.40305 37036 ft 437 kts 257°
2026-04-26 05:02 33.34217 -58.47306 37030 ft 437 kts 257°
2026-04-26 05:03 33.32583 -58.54269 37039 ft 438 kts 257°
2026-04-26 05:03 33.30934 -58.61281 37045 ft 439 kts 257°
2026-04-26 05:04 33.29277 -58.68306 37038 ft 439 kts 257°
2026-04-26 05:04 33.27614 -58.75339 37043 ft 440 kts 256°
2026-04-26 05:05 33.25944 -58.82379 37053 ft 441 kts 256°
2026-04-26 05:05 33.24268 -58.89426 37052 ft 441 kts 256°
2026-04-26 05:06 33.22587 -58.96474 37050 ft 442 kts 256°
2026-04-26 05:06 33.20898 -59.03532 37051 ft 442 kts 256°
2026-04-26 05:07 33.19205 -59.10596 37046 ft 443 kts 256°
2026-04-26 05:07 33.17505 -59.17666 37045 ft 443 kts 256°
2026-04-26 05:08 33.15799 -59.24739 37049 ft 444 kts 256°
2026-04-26 05:08 33.14086 -59.31826 37047 ft 445 kts 256°
2026-04-26 05:09 33.12368 -59.38912 37041 ft 445 kts 256°
2026-04-26 05:09 33.10642 -59.46011 37046 ft 446 kts 256°
2026-04-26 05:10 33.08910 -59.53113 37055 ft 446 kts 256°
2026-04-26 05:10 33.07173 -59.60222 37050 ft 447 kts 256°
2026-04-26 05:11 33.05440 -59.67289 37053 ft 448 kts 256°
2026-04-26 05:11 33.03689 -59.74417 37056 ft 448 kts 256°
2026-04-26 05:12 33.01932 -59.81545 37057 ft 449 kts 255°
2026-04-26 05:12 33.00169 -59.88680 37057 ft 449 kts 255°
2026-04-26 05:13 32.98400 -59.95819 37062 ft 450 kts 255°
2026-04-26 05:13 32.96625 -60.02964 37063 ft 450 kts 255°
2026-04-26 05:14 32.94844 -60.10116 37064 ft 451 kts 255°
2026-04-26 05:14 32.93055 -60.17276 37067 ft 452 kts 255°
2026-04-26 05:15 32.91260 -60.24446 37069 ft 452 kts 255°
2026-04-26 05:15 32.89459 -60.31617 37071 ft 453 kts 255°
2026-04-26 05:16 32.87651 -60.38796 37073 ft 453 kts 255°
2026-04-26 05:16 32.85838 -60.45979 37071 ft 454 kts 255°
2026-04-26 05:17 32.84031 -60.53118 37072 ft 454 kts 255°
2026-04-26 05:17 32.82203 -60.60317 37076 ft 455 kts 255°
2026-04-26 05:18 32.80371 -60.67518 37075 ft 456 kts 255°
2026-04-26 05:18 32.78531 -60.74728 37078 ft 456 kts 255°
2026-04-26 05:19 32.76685 -60.81944 37070 ft 457 kts 255°
2026-04-26 05:19 32.74833 -60.89161 37077 ft 457 kts 255°
2026-04-26 05:20 32.72975 -60.96389 37079 ft 458 kts 255°
2026-04-26 05:20 32.71109 -61.03624 37085 ft 458 kts 255°
2026-04-26 05:21 32.69238 -61.10861 37082 ft 459 kts 255°
2026-04-26 05:21 32.67391 -61.18119 37074 ft 459 kts 257°
2026-04-26 05:22 32.66144 -61.25542 37078 ft 459 kts 261°
2026-04-26 05:22 32.65054 -61.33010 37084 ft 459 kts 261°
2026-04-26 05:23 32.63987 -61.40486 37081 ft 460 kts 261°
2026-04-26 05:23 32.62907 -61.47963 37078 ft 460 kts 261°
2026-04-26 05:24 32.61814 -61.55448 37077 ft 461 kts 261°
2026-04-26 05:24 32.60712 -61.62945 37077 ft 461 kts 261°
2026-04-26 05:25 32.59605 -61.70442 37085 ft 462 kts 261°
2026-04-26 05:25 32.58492 -61.77953 37085 ft 463 kts 261°
2026-04-26 05:26 32.57373 -61.85468 37083 ft 463 kts 261°
2026-04-26 05:26 32.56248 -61.92994 37083 ft 464 kts 261°
2026-04-26 05:27 32.55125 -62.00476 37081 ft 464 kts 261°
2026-04-26 05:27 32.53989 -62.08017 37087 ft 465 kts 261°
2026-04-26 05:28 32.52847 -62.15560 37084 ft 465 kts 261°
2026-04-26 05:28 32.51886 -62.21887 37085 ft 466 kts 261°
2026-04-26 05:29 32.50733 -62.29444 37086 ft 466 kts 261°
2026-04-26 05:29 32.49583 -62.36955 37084 ft 467 kts 261°
2026-04-26 05:30 32.48417 -62.44530 37087 ft 468 kts 261°
2026-04-26 05:30 32.47247 -62.52108 37087 ft 468 kts 261°
2026-04-26 05:31 32.46070 -62.59696 37086 ft 469 kts 261°
2026-04-26 05:31 32.44888 -62.67289 37088 ft 469 kts 261°
2026-04-26 05:32 32.43700 -62.74885 37091 ft 470 kts 261°
2026-04-26 05:32 32.42506 -62.82489 37090 ft 470 kts 261°
2026-04-26 05:33 32.41306 -62.90102 37091 ft 471 kts 260°
2026-04-26 05:33 32.40100 -62.97724 37092 ft 471 kts 260°
2026-04-26 05:34 32.38888 -63.05350 37088 ft 472 kts 260°
2026-04-26 05:34 32.37669 -63.12988 37090 ft 473 kts 260°
2026-04-26 05:35 32.36443 -63.20635 37088 ft 473 kts 260°
2026-04-26 05:35 32.35213 -63.28284 37089 ft 474 kts 260°
2026-04-26 05:36 32.33976 -63.35938 37091 ft 474 kts 260°
2026-04-26 05:36 32.32735 -63.43594 37091 ft 474 kts 260°
2026-04-26 05:37 32.31495 -63.51209 37090 ft 475 kts 260°
2026-04-26 05:37 32.30242 -63.58875 37090 ft 475 kts 260°
2026-04-26 05:38 32.28983 -63.66548 37092 ft 476 kts 260°
2026-04-26 05:38 32.27717 -63.74228 37092 ft 476 kts 260°
2026-04-26 05:39 32.26446 -63.81913 37091 ft 477 kts 260°
2026-04-26 05:39 32.25168 -63.89608 37090 ft 477 kts 260°
2026-04-26 05:40 32.23885 -63.97303 37093 ft 478 kts 260°
2026-04-26 05:40 32.22596 -64.05004 37087 ft 478 kts 260°
2026-04-26 05:41 32.21301 -64.12709 37083 ft 478 kts 260°
2026-04-26 05:41 32.20002 -64.20412 37080 ft 479 kts 260°
2026-04-26 05:42 32.18696 -64.28126 37077 ft 479 kts 260°
2026-04-26 05:42 32.17383 -64.35848 37076 ft 480 kts 259°
2026-04-26 05:43 32.16065 -64.43571 37071 ft 480 kts 259°
2026-04-26 05:43 32.14740 -64.51303 37080 ft 481 kts 259°
2026-04-26 05:44 32.13410 -64.59039 37076 ft 481 kts 259°
2026-04-26 05:44 32.12074 -64.66777 37078 ft 482 kts 259°
2026-04-26 05:45 32.10733 -64.74519 37076 ft 482 kts 259°
2026-04-26 05:45 32.09395 -64.82210 37077 ft 482 kts 259°
2026-04-26 05:46 32.08033 -64.90008 37080 ft 482 kts 259°
2026-04-26 05:46 32.06684 -64.97705 37082 ft 483 kts 259°
2026-04-26 05:47 32.05311 -65.05510 37088 ft 483 kts 259°
2026-04-26 05:47 32.03950 -65.13216 37084 ft 484 kts 259°
2026-04-26 05:48 32.02574 -65.20978 37083 ft 484 kts 259°
2026-04-26 05:48 32.01193 -65.28741 37084 ft 484 kts 259°
2026-04-26 05:49 31.99110 -65.40397 37079 ft 485 kts 259°
2026-04-26 05:50 31.97715 -65.48165 37078 ft 485 kts 259°
2026-04-26 05:50 31.96314 -65.55937 37078 ft 485 kts 259°
2026-04-26 05:51 31.94908 -65.63708 37074 ft 485 kts 259°
2026-04-26 05:51 31.93497 -65.71480 37076 ft 486 kts 259°
2026-04-26 05:52 31.92080 -65.79257 37076 ft 486 kts 259°
2026-04-26 05:52 31.90657 -65.87040 37073 ft 486 kts 259°
2026-04-26 05:53 31.89228 -65.94822 37074 ft 487 kts 259°
2026-04-26 05:53 31.87794 -66.02607 37073 ft 487 kts 259°
2026-04-26 05:54 31.86355 -66.10392 37073 ft 487 kts 258°
2026-04-26 05:54 31.84920 -66.18122 37073 ft 487 kts 258°
2026-04-26 05:55 31.83471 -66.25907 37068 ft 487 kts 258°
2026-04-26 05:55 31.82016 -66.33692 37064 ft 487 kts 258°
2026-04-26 05:56 31.80556 -66.41473 37067 ft 488 kts 258°
2026-04-26 05:56 31.79091 -66.49258 37066 ft 488 kts 258°
2026-04-26 05:57 31.77620 -66.57047 37070 ft 488 kts 258°
2026-04-26 05:57 31.76143 -66.64836 37067 ft 488 kts 258°
2026-04-26 05:58 31.74662 -66.72624 37065 ft 488 kts 258°
2026-04-26 05:58 31.73175 -66.80410 37061 ft 489 kts 258°
2026-04-26 05:59 31.71684 -66.88196 37061 ft 489 kts 258°
2026-04-26 05:59 31.70186 -66.95986 37061 ft 489 kts 258°
2026-04-26 06:00 31.68684 -67.03773 37062 ft 489 kts 258°
2026-04-26 06:00 31.67176 -67.11563 37061 ft 489 kts 258°
2026-04-26 06:01 31.65663 -67.19352 37061 ft 489 kts 258°
2026-04-26 06:01 31.64146 -67.27136 37061 ft 490 kts 258°
2026-04-26 06:02 31.62621 -67.34931 37058 ft 490 kts 258°
2026-04-26 06:02 31.61093 -67.42716 37058 ft 490 kts 258°
2026-04-26 06:03 31.59569 -67.50455 37060 ft 490 kts 258°
2026-04-26 06:03 31.58030 -67.58244 37061 ft 490 kts 258°
2026-04-26 06:04 31.56485 -67.66037 37060 ft 490 kts 258°
2026-04-26 06:04 31.54936 -67.73824 37058 ft 491 kts 258°
2026-04-26 06:05 31.53382 -67.81609 37059 ft 491 kts 257°
2026-04-26 06:05 31.51822 -67.89397 37059 ft 491 kts 257°
2026-04-26 06:06 31.50258 -67.97181 37059 ft 491 kts 257°
2026-04-26 06:06 31.48688 -68.04969 37059 ft 491 kts 257°
2026-04-26 06:07 31.47350 -68.12808 37058 ft 491 kts 262°
2026-04-26 06:07 31.46422 -68.20725 37057 ft 491 kts 263°
2026-04-26 06:08 31.45490 -68.28642 37056 ft 491 kts 262°
2026-04-26 06:08 31.44479 -68.36556 37058 ft 491 kts 262°
2026-04-26 06:09 31.43429 -68.44467 37056 ft 492 kts 262°
2026-04-26 06:09 31.42369 -68.52376 37056 ft 492 kts 262°
2026-04-26 06:10 31.41307 -68.60288 37059 ft 492 kts 262°
2026-04-26 06:10 31.40249 -68.68145 37058 ft 492 kts 262°
2026-04-26 06:11 31.39179 -68.76060 37055 ft 492 kts 261°
2026-04-26 06:11 31.38104 -68.83973 37052 ft 492 kts 261°
2026-04-26 06:12 31.37024 -68.91884 37054 ft 492 kts 261°
2026-04-26 06:12 31.35939 -68.99794 37054 ft 493 kts 261°
2026-04-26 06:13 31.34849 -69.07706 37054 ft 493 kts 261°
2026-04-26 06:13 31.33753 -69.15620 37052 ft 493 kts 261°
2026-04-26 06:14 31.32653 -69.23533 37046 ft 493 kts 261°
2026-04-26 06:14 31.31547 -69.31444 37045 ft 493 kts 261°
2026-04-26 06:15 31.30435 -69.39365 37043 ft 493 kts 261°
2026-04-26 06:15 31.29319 -69.47280 37044 ft 494 kts 261°
2026-04-26 06:16 31.28196 -69.55204 37047 ft 494 kts 261°
2026-04-26 06:16 31.27075 -69.63078 37046 ft 494 kts 261°
2026-04-26 06:17 31.25942 -69.71002 37049 ft 494 kts 261°
2026-04-26 06:17 31.24804 -69.78924 37045 ft 494 kts 261°
2026-04-26 06:18 31.23661 -69.86850 37047 ft 494 kts 261°
2026-04-26 06:18 31.22513 -69.94771 37043 ft 494 kts 261°
2026-04-26 06:19 31.21556 -70.01348 37046 ft 494 kts 261°
2026-04-26 06:19 31.20399 -70.09264 37044 ft 494 kts 261°
2026-04-26 06:20 31.19237 -70.17180 37038 ft 494 kts 261°
2026-04-26 06:20 31.18072 -70.25088 37039 ft 494 kts 261°
2026-04-26 06:21 31.16900 -70.33003 37040 ft 494 kts 261°
2026-04-26 06:21 31.15724 -70.40911 37038 ft 494 kts 260°
2026-04-26 06:22 31.14543 -70.48813 37039 ft 494 kts 260°
2026-04-26 06:22 31.13357 -70.56721 37039 ft 495 kts 260°
2026-04-26 06:23 31.12166 -70.64631 37033 ft 495 kts 260°
2026-04-26 06:23 31.10970 -70.72537 37031 ft 495 kts 260°
2026-04-26 06:24 31.09767 -70.80448 37031 ft 495 kts 260°
2026-04-26 06:24 31.08562 -70.88349 37032 ft 495 kts 260°
2026-04-26 06:25 31.07350 -70.96253 37032 ft 495 kts 260°
2026-04-26 06:25 31.06135 -71.04150 37032 ft 494 kts 260°
2026-04-26 06:26 31.04924 -71.11991 37032 ft 494 kts 260°
2026-04-26 06:26 31.03699 -71.19877 37027 ft 494 kts 260°
2026-04-26 06:27 31.02473 -71.27748 37027 ft 494 kts 260°
2026-04-26 06:27 31.01241 -71.35618 37027 ft 493 kts 260°
2026-04-26 06:28 31.00005 -71.43482 37026 ft 493 kts 260°
2026-04-26 06:28 30.98764 -71.51342 37027 ft 493 kts 260°
2026-04-26 06:29 30.97522 -71.59193 37023 ft 492 kts 260°
2026-04-26 06:29 30.96274 -71.67039 37023 ft 492 kts 260°
2026-04-26 06:30 30.95022 -71.74879 37025 ft 492 kts 260°
2026-04-26 06:30 30.93765 -71.82719 37024 ft 492 kts 260°
2026-04-26 06:31 30.92502 -71.90558 37022 ft 492 kts 260°
2026-04-26 06:31 30.91235 -71.98394 37019 ft 492 kts 260°
2026-04-26 06:32 30.89964 -72.06226 37017 ft 492 kts 259°
2026-04-26 06:32 30.88690 -72.14053 37017 ft 492 kts 259°
2026-04-26 06:33 30.87409 -72.21879 37018 ft 492 kts 259°
2026-04-26 06:33 30.86124 -72.29701 37017 ft 492 kts 259°
2026-04-26 06:34 30.84833 -72.37526 37016 ft 492 kts 259°
2026-04-26 06:34 30.83540 -72.45341 37016 ft 492 kts 259°
2026-04-26 06:35 30.82242 -72.53153 37016 ft 492 kts 259°
2026-04-26 06:35 30.80940 -72.60962 37010 ft 492 kts 259°
2026-04-26 06:36 30.79632 -72.68767 37013 ft 492 kts 259°
2026-04-26 06:36 30.78321 -72.76568 37008 ft 491 kts 259°
2026-04-26 06:37 30.77005 -72.84369 37009 ft 491 kts 259°
2026-04-26 06:37 30.75685 -72.92163 37008 ft 491 kts 259°
2026-04-26 06:38 30.74369 -72.99901 37009 ft 491 kts 259°
2026-04-26 06:38 30.73039 -73.07694 37010 ft 491 kts 259°
2026-04-26 06:39 30.71705 -73.15479 37006 ft 491 kts 259°
2026-04-26 06:39 30.70366 -73.23264 37002 ft 491 kts 259°
2026-04-26 06:40 30.69023 -73.31048 37005 ft 491 kts 259°
2026-04-26 06:40 30.67675 -73.38829 37001 ft 491 kts 259°
2026-04-26 06:41 30.66322 -73.46609 37002 ft 491 kts 259°
2026-04-26 06:41 30.64965 -73.54385 37001 ft 492 kts 259°
2026-04-26 06:42 30.63602 -73.62165 37000 ft 492 kts 259°
2026-04-26 06:42 30.62234 -73.69944 37002 ft 492 kts 259°
2026-04-26 06:43 30.60861 -73.77723 36997 ft 492 kts 259°
2026-04-26 06:43 30.59483 -73.85504 36999 ft 492 kts 259°
2026-04-26 06:44 30.58114 -73.93233 36992 ft 492 kts 259°
2026-04-26 06:44 30.57382 -74.01108 36994 ft 491 kts 266°
2026-04-26 06:45 30.56941 -74.09012 36993 ft 491 kts 267°
2026-04-26 06:45 30.56542 -74.16917 36997 ft 491 kts 267°
2026-04-26 06:46 30.56131 -74.24817 36994 ft 490 kts 267°
2026-04-26 06:46 30.55705 -74.32711 36991 ft 490 kts 267°
2026-04-26 06:47 30.55272 -74.40600 37000 ft 490 kts 267°
2026-04-26 06:47 30.54834 -74.48480 36998 ft 489 kts 267°
2026-04-26 06:48 30.54392 -74.56344 36985 ft 489 kts 267°
2026-04-26 06:48 30.53946 -74.64207 36990 ft 488 kts 267°
2026-04-26 06:49 30.53497 -74.72052 36987 ft 487 kts 267°
2026-04-26 06:49 30.53043 -74.79888 36985 ft 487 kts 267°
2026-04-26 06:50 30.52585 -74.87717 36977 ft 486 kts 267°
2026-04-26 06:50 30.52123 -74.95526 36978 ft 485 kts 266°
2026-04-26 06:51 30.51657 -75.03330 36978 ft 485 kts 266°
2026-04-26 06:51 30.50950 -75.15007 36986 ft 484 kts 266°
2026-04-26 06:52 30.50474 -75.22781 36988 ft 483 kts 266°
2026-04-26 06:52 30.49994 -75.30544 36972 ft 482 kts 266°
2026-04-26 06:53 30.49510 -75.38288 36984 ft 482 kts 266°
2026-04-26 06:53 30.49022 -75.46030 36972 ft 481 kts 266°
2026-04-26 06:54 30.48531 -75.53754 36979 ft 480 kts 266°
2026-04-26 06:54 30.48036 -75.61465 36967 ft 480 kts 266°
2026-04-26 06:55 30.47536 -75.69169 36976 ft 479 kts 266°
2026-04-26 06:55 30.47033 -75.76862 36973 ft 478 kts 266°
2026-04-26 06:56 30.46526 -75.84539 36974 ft 478 kts 266°
2026-04-26 06:56 30.46016 -75.92208 36968 ft 477 kts 266°
2026-04-26 06:57 30.45501 -75.99871 36960 ft 477 kts 266°
2026-04-26 06:57 30.44982 -76.07531 36957 ft 477 kts 266°
2026-04-26 06:58 30.44459 -76.15184 36956 ft 476 kts 266°
2026-04-26 06:58 30.43935 -76.22787 36962 ft 476 kts 266°
2026-04-26 06:59 30.43403 -76.30435 36963 ft 476 kts 266°
2026-04-26 06:59 30.42867 -76.38075 36954 ft 476 kts 266°
2026-04-26 07:00 30.42327 -76.45711 36954 ft 475 kts 266°
2026-04-26 07:00 30.41783 -76.53339 36955 ft 475 kts 266°
2026-04-26 07:01 30.41235 -76.60960 36952 ft 475 kts 265°
2026-04-26 07:01 30.40683 -76.68577 36955 ft 474 kts 265°
2026-04-26 07:02 30.40127 -76.76182 36953 ft 474 kts 265°
2026-04-26 07:02 30.39567 -76.83783 36946 ft 473 kts 265°
2026-04-26 07:03 30.39003 -76.91377 36953 ft 473 kts 265°
2026-04-26 07:03 30.38475 -76.98961 36952 ft 472 kts 268°
2026-04-26 07:04 30.38575 -77.06566 36948 ft 472 kts 271°
2026-04-26 07:04 30.38829 -77.14170 36950 ft 472 kts 272°
2026-04-26 07:05 30.39105 -77.21768 36949 ft 472 kts 271°
2026-04-26 07:05 30.39369 -77.29362 36948 ft 472 kts 271°
2026-04-26 07:06 30.39578 -77.35679 36946 ft 472 kts 271°
2026-04-26 07:06 30.39824 -77.43275 36944 ft 472 kts 271°
2026-04-26 07:07 30.40064 -77.50865 36947 ft 472 kts 271°
2026-04-26 07:07 30.40301 -77.58457 36944 ft 471 kts 271°
2026-04-26 07:08 30.40533 -77.66040 36941 ft 471 kts 271°
2026-04-26 07:08 30.40600 -77.73621 36936 ft 470 kts 263°
2026-04-26 07:09 30.39000 -77.80926 36940 ft 469 kts 251°
2026-04-26 07:09 30.36810 -77.88036 36939 ft 469 kts 250°
2026-04-26 07:11 30.31168 -78.05677 36936 ft 468 kts 250°
2026-04-26 07:11 30.28937 -78.12745 36936 ft 468 kts 250°
2026-04-26 07:12 30.26706 -78.19806 36933 ft 467 kts 250°
2026-04-26 07:12 30.24473 -78.26858 36932 ft 466 kts 250°
2026-04-26 07:13 30.22240 -78.33889 36932 ft 466 kts 250°
2026-04-26 07:13 30.20003 -78.40917 36935 ft 465 kts 250°
2026-04-26 07:14 30.17766 -78.47932 36934 ft 465 kts 250°
2026-04-26 07:14 30.15525 -78.54944 36932 ft 465 kts 250°
2026-04-26 07:15 30.13282 -78.61948 36933 ft 465 kts 250°
2026-04-26 07:15 30.11037 -78.68943 36934 ft 465 kts 250°
2026-04-26 07:16 30.08787 -78.75938 36930 ft 465 kts 250°
2026-04-26 07:16 30.06530 -78.82938 36932 ft 465 kts 250°
2026-04-26 07:17 30.04267 -78.89945 36929 ft 466 kts 250°
2026-04-26 07:17 30.02000 -78.96948 36930 ft 466 kts 250°
2026-04-26 07:18 29.99725 -79.03961 36933 ft 467 kts 250°
2026-04-26 07:18 29.97463 -79.10923 36928 ft 467 kts 250°
2026-04-26 07:19 29.95178 -79.17936 36932 ft 467 kts 250°
2026-04-26 07:19 29.92889 -79.24951 36931 ft 468 kts 250°
2026-04-26 07:20 29.90590 -79.31979 36930 ft 469 kts 250°
2026-04-26 07:20 29.88288 -79.39003 36928 ft 469 kts 250°
2026-04-26 07:21 29.85979 -79.46036 36929 ft 469 kts 250°
2026-04-26 07:21 29.83665 -79.53066 36925 ft 470 kts 250°
2026-04-26 07:22 29.81378 -79.60001 36923 ft 470 kts 250°
2026-04-26 07:22 29.79057 -79.67022 36922 ft 469 kts 250°
2026-04-26 07:23 29.76733 -79.74041 36919 ft 469 kts 250°
2026-04-26 07:23 29.74405 -79.81055 36917 ft 469 kts 250°
2026-04-26 07:24 29.72074 -79.88067 36919 ft 469 kts 250°
2026-04-26 07:24 29.69741 -79.95069 36915 ft 469 kts 250°
2026-04-26 07:25 29.67403 -80.02072 36917 ft 469 kts 250°
2026-04-26 07:25 29.65063 -80.09064 36917 ft 469 kts 250°
2026-04-26 07:26 29.62720 -80.16051 36830 ft 469 kts 250°
2026-04-26 07:26 29.60380 -80.23014 36894 ft 471 kts 250°
2026-04-26 07:27 29.58039 -80.29966 36390 ft 460 kts 250°
2026-04-26 07:27 29.56880 -80.33406 35346 ft 465 kts 249°
2026-04-26 07:27 29.55708 -80.36886 34304 ft 469 kts 249°
2026-04-26 07:27 29.54523 -80.40394 33248 ft 473 kts 249°
2026-04-26 07:28 29.53325 -80.43931 32305 ft 478 kts 249°
2026-04-26 07:28 29.52113 -80.47505 31380 ft 483 kts 250°
2026-04-26 07:28 29.50886 -80.51124 30465 ft 488 kts 250°
2026-04-26 07:28 29.49652 -80.54764 29453 ft 491 kts 250°
2026-04-26 07:29 29.48415 -80.58404 28514 ft 487 kts 250°
2026-04-26 07:29 29.47191 -80.62004 27713 ft 482 kts 250°
2026-04-26 07:29 29.45978 -80.65567 26979 ft 477 kts 251°
2026-04-26 07:29 29.44774 -80.69102 26275 ft 474 kts 251°
2026-04-26 07:30 29.43577 -80.72612 25529 ft 471 kts 251°
2026-04-26 07:30 29.42388 -80.76095 24796 ft 467 kts 251°
2026-04-26 07:30 29.41207 -80.79555 24075 ft 464 kts 251°
2026-04-26 07:30 29.40030 -80.82993 23324 ft 461 kts 251°
2026-04-26 07:31 29.38864 -80.86403 22524 ft 458 kts 251°
2026-04-26 07:31 29.37706 -80.89783 21791 ft 453 kts 251°
2026-04-26 07:31 29.36562 -80.93124 21070 ft 448 kts 251°
2026-04-26 07:31 29.35429 -80.96427 20375 ft 443 kts 251°
2026-04-26 07:32 29.34305 -80.99703 19693 ft 439 kts 250°
2026-04-26 07:32 29.33191 -81.02943 19022 ft 435 kts 250°
2026-04-26 07:32 29.32019 -81.06124 18352 ft 432 kts 245°
2026-04-26 07:32 29.30277 -81.08922 17614 ft 433 kts 228°
2026-04-26 07:33 29.27891 -81.11006 16915 ft 433 kts 211°
2026-04-26 07:33 29.25073 -81.12193 16201 ft 432 kts 193°
2026-04-26 07:33 29.22080 -81.12364 15499 ft 432 kts 175°
2026-04-26 07:33 29.19195 -81.11658 14857 ft 427 kts 167°
2026-04-26 07:34 29.16346 -81.10900 14026 ft 409 kts 170°
2026-04-26 07:34 29.13578 -81.10356 13013 ft 406 kts 173°
2026-04-26 07:34 29.10751 -81.09947 12524 ft 407 kts 175°
2026-04-26 07:34 29.07957 -81.09617 11739 ft 402 kts 176°
2026-04-26 07:35 29.05197 -81.09341 11344 ft 394 kts 177°
2026-04-26 07:35 29.02532 -81.09097 11211 ft 374 kts 177°
2026-04-26 07:35 28.99997 -81.08879 11071 ft 356 kts 178°
2026-04-26 07:35 28.97580 -81.08678 10912 ft 340 kts 178°
2026-04-26 07:36 28.95271 -81.08488 10750 ft 326 kts 178°
2026-04-26 07:36 28.93058 -81.08308 10619 ft 312 kts 178°
2026-04-26 07:36 28.90929 -81.08137 10404 ft 302 kts 178°
2026-04-26 07:36 28.88846 -81.07972 10049 ft 299 kts 178°
2026-04-26 07:37 28.86801 -81.07812 9631 ft 289 kts 178°
2026-04-26 07:37 28.84811 -81.07654 8938 ft 284 kts 178°
2026-04-26 07:37 28.82848 -81.07499 8114 ft 282 kts 178°
2026-04-26 07:37 28.80904 -81.07345 7331 ft 278 kts 178°
2026-04-26 07:38 28.78985 -81.07196 6585 ft 274 kts 179°
2026-04-26 07:38 28.77098 -81.07050 5813 ft 270 kts 178°
2026-04-26 07:38 28.75260 -81.06904 5030 ft 267 kts 178°
2026-04-26 07:38 28.73416 -81.06758 4401 ft 265 kts 178°
2026-04-26 07:39 28.71578 -81.06613 4111 ft 266 kts 178°
2026-04-26 07:39 28.69729 -81.06467 3893 ft 265 kts 178°
2026-04-26 07:39 28.67892 -81.06319 3577 ft 264 kts 177°
2026-04-26 07:39 28.66063 -81.06291 3259 ft 263 kts 187°
2026-04-26 07:40 28.64354 -81.06950 2944 ft 260 kts 213°
2026-04-26 07:40 28.63097 -81.08388 2630 ft 258 kts 238°
2026-04-26 07:40 28.62494 -81.10293 2314 ft 257 kts 259°
2026-04-26 07:40 28.62245 -81.12319 2171 ft 257 kts 262°
2026-04-26 07:41 28.62040 -81.14274 2148 ft 240 kts 262°
2026-04-26 07:41 28.61840 -81.16087 2143 ft 222 kts 261°
2026-04-26 07:41 28.61648 -81.17770 2141 ft 206 kts 261°
2026-04-26 07:41 28.61465 -81.19326 2139 ft 191 kts 261°
2026-04-26 07:42 28.61295 -81.20758 2170 ft 173 kts 261°
2026-04-26 07:42 28.61146 -81.22004 2135 ft 150 kts 261°
2026-04-26 07:42 28.61012 -81.23117 2131 ft 137 kts 260°
2026-04-26 07:42 28.60881 -81.24183 2145 ft 136 kts 260°
2026-04-26 07:43 28.60747 -81.25259 2161 ft 139 kts 260°
2026-04-26 07:43 28.60614 -81.26352 2146 ft 139 kts 260°
2026-04-26 07:43 28.60479 -81.27445 2147 ft 139 kts 260°
2026-04-26 07:43 28.60359 -81.28424 2161 ft 139 kts 262°
2026-04-26 07:44 28.60251 -81.29427 2144 ft 140 kts 263°
2026-04-26 07:44 28.60133 -81.30505 2155 ft 140 kts 261°
2026-04-26 07:44 28.59844 -81.31568 2147 ft 139 kts 241°
2026-04-26 07:44 28.59185 -81.32351 2133 ft 140 kts 205°
2026-04-26 07:45 28.58267 -81.32701 2146 ft 141 kts 192°
2026-04-26 07:45 28.57286 -81.32772 2150 ft 141 kts 182°
2026-04-26 07:45 28.56308 -81.32761 2145 ft 141 kts 182°
2026-04-26 07:45 28.55325 -81.32769 2136 ft 141 kts 182°
2026-04-26 07:46 28.54342 -81.32756 2110 ft 141 kts 180°
2026-04-26 07:46 28.53362 -81.32723 2050 ft 141 kts 179°
2026-04-26 07:46 28.52381 -81.32692 1910 ft 141 kts 182°
2026-04-26 07:46 28.51399 -81.32717 1658 ft 141 kts 185°
2026-04-26 07:47 28.50430 -81.32751 1386 ft 138 kts 180°
2026-04-26 07:47 28.49477 -81.32743 1153 ft 137 kts 181°
2026-04-26 07:47 28.48526 -81.32735 994 ft 135 kts 180°
2026-04-26 07:47 28.47602 -81.32724 733 ft 131 kts 179°
2026-04-26 07:48 28.46695 -81.32724 529 ft 131 kts 179°
2026-04-26 07:48 28.45792 -81.32710 322 ft 130 kts 177°
2026-04-26 07:48 28.44904 -81.32694 157 ft 130 kts 180°
2026-04-26 07:48 28.44017 -81.32684 106 ft 112 kts 180°
2026-04-26 07:49 28.43416 -81.32684 107 ft 48 kts 181°
2026-04-26 07:49 28.43245 -81.32678 107 ft 23 kts 178°
2026-04-26 07:49 28.43081 -81.32604 105 ft 28 kts 130°
2026-04-26 07:50 28.43057 -81.32537 105 ft 0 kts 93°
2026-04-26 07:51 28.43057 -81.32510 105 ft 7 kts 81°
2026-04-26 07:51 28.43074 -81.32464 105 ft 5 kts 54°
2026-04-26 07:51 28.43143 -81.32445 105 ft 16 kts
2026-04-26 07:51 28.43250 -81.32449 106 ft 14 kts 358°
2026-04-26 07:52 28.43386 -81.32452 104 ft 25 kts 359°
2026-04-26 07:52 28.43584 -81.32452 106 ft 32 kts 360°
2026-04-26 07:52 28.43784 -81.32447 104 ft 12 kts 23°
2026-04-26 07:52 28.43854 -81.32341 106 ft 22 kts 59°
2026-04-26 07:53 28.43945 -81.32168 107 ft 30 kts 59°
2026-04-26 07:53 28.43962 -81.32017 106 ft 7 kts 142°
2026-04-26 07:53 28.43886 -81.32003 105 ft 16 kts 179°
2026-04-26 07:53 28.43746 -81.32003 105 ft 24 kts 179°
2026-04-26 07:54 28.43554 -81.31999 104 ft 31 kts 180°
2026-04-26 07:54 28.43321 -81.31997 105 ft 36 kts 179°
2026-04-26 07:54 28.43050 -81.31995 106 ft 42 kts 179°
2026-04-26 07:54 28.42743 -81.31991 108 ft 46 kts 179°
2026-04-26 07:55 28.42413 -81.31988 110 ft 49 kts 180°
2026-04-26 07:55 28.42054 -81.31984 106 ft 54 kts 179°
2026-04-26 07:55 28.41727 -81.31980 105 ft 33 kts 179°
2026-04-26 07:55 28.41566 -81.31963 106 ft 12 kts 140°
2026-04-26 07:56 28.41567 -81.31898 107 ft 8 kts 44°
2026-04-26 07:56 28.41616 -81.31878 105 ft 14 kts
2026-04-26 07:56 28.41733 -81.31867 105 ft 11 kts 32°
2026-04-26 07:56 28.41718 -81.31787 105 ft 15 kts 141°
2026-04-26 07:57 28.41649 -81.31656 104 ft 25 kts 114°
2026-04-26 07:57 28.41584 -81.31520 102 ft 6 kts 123°
2026-04-26 07:57 28.41565 -81.31464 102 ft 0 kts 101°
2026-04-26 07:58 28.41564 -81.31457 102 ft 0 kts 102°